GFSNGP_700_spd_039.txt.gz
Wind_Speed
24 19 19 19 14 13 20 18 20 22 22 18 18 15 12 11 15 17 16 18 18 17 18 20 24 27 28 29 29 30 32 30 30 31 33 33 33 37 42 44 43 51 51 51
21 19 20 23 23 21 20 20 21 16 16 15 19 17 14 14 15 18 20 20 18 18 18 21 22 22 21 26 27 27 28 31 31 33 33 33 35 44 45 50 51 54 39 34
20 21 23 26 33 33 31 27 27 25 22 20 20 15 17 16 17 17 17 16 15 18 19 21 20 20 19 18 20 25 27 29 33 33 36 40 46 44 47 54 45 33 37 36
15 14 4 28 27 27 30 32 33 32 31 25 18 21 20 18 16 15 14 14 16 18 19 21 22 22 24 25 26 23 25 27 31 34 38 41 44 47 51 39 38 43 32 23
10 17 17 12 15 21 18 18 18 17 18 19 21 20 18 14 12 13 15 17 17 19 22 25 27 28 26 25 25 25 27 29 32 36 41 41 38 47 41 41 43 32 28 27
14 7 7 18 14 18 18 15 18 16 15 17 18 15 13 12 14 17 17 19 21 22 24 25 26 26 26 27 27 26 26 29 33 42 50 37 43 37 42 43 32 30 29 31
24 15 15 20 16 15 20 15 21 21 17 16 14 14 13 16 20 21 21 22 22 23 24 26 28 28 27 28 27 26 24 26 28 33 40 37 39 43 39 33 33 31 33 34
26 19 14 19 19 24 20 24 14 14 19 17 16 16 19 21 21 22 23 24 23 24 27 29 30 28 28 26 27 29 32 36 37 36 37 38 36 33 33 34 33 35 37 37
19 21 21 13 15 22 25 17 13 10 12 14 15 20 20 20 21 23 23 24 25 27 30 28 28 29 30 30 30 33 34 35 34 32 30 31 32 33 32 35 38 39 40 41
20 23 19 16 14 14 16 16 14 12 14 16 19 19 22 23 24 23 24 25 28 30 26 24 28 31 32 35 33 31 28 27 27 29 31 32 32 34 37 38 40 42 43 44
24 22 18 18 17 16 16 15 14 16 19 21 22 23 25 26 28 26 28 29 29 29 28 29 31 31 27 24 23 24 26 28 29 31 33 34 36 38 40 41 43 45 46 47
27 22 21 16 15 17 18 20 21 23 24 25 26 27 28 29 28 28 29 29 30 31 30 27 23 21 22 23 24 24 26 28 30 32 34 36 39 41 42 44 46 48 49 49
23 19 18 18 19 19 20 23 25 25 25 26 27 28 27 28 28 29 28 28 27 23 21 21 21 21 22 23 25 26 28 30 32 35 37 41 43 47 50 48 49 50 51 50
22 22 21 20 20 21 22 23 25 26 26 27 27 27 27 27 26 26 23 21 20 20 20 20 21 22 23 25 27 29 32 35 38 40 43 46 48 50 51 53 54 53 50 49
25 25 23 22 23 24 25 26 26 27 28 28 28 27 25 25 22 20 19 19 19 19 19 21 23 25 26 28 31 33 36 39 41 44 46 48 49 51 52 52 52 51 49 45
24 26 29 30 29 28 28 28 28 28 27 27 25 24 21 19 17 17 17 18 18 19 20 22 24 27 29 31 33 36 39 42 45 47 48 49 50 50 50 49 48 46 44 42
28 31 33 34 29 29 29 27 28 27 26 25 23 19 16 15 15 16 17 18 19 20 23 25 27 29 32 35 38 40 43 45 46 48 49 50 50 50 49 48 46 45 44 40
32 33 32 32 28 25 27 27 26 25 24 20 18 16 14 15 15 17 18 19 21 23 25 27 30 33 35 38 41 43 45 46 47 49 50 49 48 46 45 46 46 45 42 38
31 30 27 25 23 25 26 24 23 22 19 18 16 15 13 13 15 16 19 21 24 26 27 30 33 36 39 41 44 45 46 47 48 48 47 46 44 43 42 42 41 41 38 31
25 26 27 26 24 22 19 18 18 18 17 15 11 10 12 14 16 18 21 23 25 28 30 34 36 39 42 43 44 45 46 47 47 46 45 43 42 41 39 38 37 36 32 26
25 25 22 19 18 17 17 16 15 14 11 9 9 12 14 16 18 21 23 25 28 31 33 35 39 42 43 44 45 45 46 45 45 43 42 41 39 37 36 35 34 33 31 27
18 16 16 16 16 15 13 13 12 9 7 9 13 15 16 18 20 23 25 28 31 33 36 40 43 44 44 45 45 45 45 44 42 41 40 38 36 35 34 33 32 31 29 29
9 10 11 11 12 13 13 10 7 6 10 13 15 16 17 20 23 26 28 30 32 37 41 43 43 44 45 44 44 44 43 42 39 38 37 35 34 33 32 31 31 31 30 29
6 9 11 11 12 11 8 7 8 12 14 16 17 17 20 23 27 29 31 34 38 43 44 44 44 44 44 43 42 41 40 39 37 35 33 32 31 31 31 31 30 30 30 29
10 10 10 11 9 9 10 12 14 16 17 19 21 23 25 28 31 33 35 39 43 45 44 44 43 43 42 40 39 39 38 36 34 32 31 30 30 30 30 31 32 32 31 30
10 11 10 10 12 14 16 18 20 21 22 24 26 27 29 32 34 36 40 43 45 44 43 42 41 41 40 39 37 36 35 34 32 30 30 30 31 30 32 35 36 35 33 31
12 13 14 15 17 19 21 23 25 26 27 28 29 31 33 35 37 40 43 43 43 42 41 41 40 39 38 36 35 34 33 31 30 29 30 31 32 33 35 36 34 33 32 31

GFSNGP_700_spd_045.txt.gz
Wind_Speed
29 27 24 23 24 20 20 23 25 25 25 19 16 16 13 16 17 16 15 18 17 16 17 17 17 19 19 21 23 25 28 30 31 31 30 29 30 32 32 32 33 34 36 44
26 26 27 26 23 20 19 20 23 21 27 21 22 19 16 16 18 17 15 16 21 22 22 23 22 21 21 22 24 26 26 27 29 30 30 32 33 32 28 32 33 45 41 46
22 24 24 23 26 25 24 26 27 31 33 27 25 22 21 20 18 16 19 21 23 21 20 19 18 19 21 25 26 26 26 26 28 30 32 33 32 30 28 34 35 45 42 34
19 18 6 23 25 23 25 28 31 33 32 29 26 25 25 23 24 22 23 21 18 17 18 18 20 23 24 24 24 25 25 26 27 29 31 32 31 28 33 36 37 32 33 37
16 21 22 21 23 22 23 36 26 26 20 21 24 26 24 24 22 21 18 15 16 17 18 21 22 22 22 21 21 22 24 25 26 28 29 29 27 25 27 26 31 37 37 37
15 11 9 25 23 23 17 37 27 21 18 17 18 23 24 22 20 17 16 15 16 19 20 21 21 20 20 22 24 25 25 24 25 26 25 23 24 26 31 35 36 33 31 33
30 19 20 21 19 17 17 30 21 15 11 14 13 11 12 18 18 16 15 16 18 18 19 19 20 21 23 25 26 26 25 27 27 25 26 28 26 25 25 26 28 31 32 32
29 21 15 26 23 26 25 24 21 15 13 12 12 15 18 18 17 16 16 17 18 17 18 19 21 23 25 27 27 27 27 27 27 25 22 22 23 25 28 30 31 33 35 36
28 34 30 23 23 25 28 21 18 16 11 13 15 19 20 19 17 16 17 17 18 19 20 22 23 26 28 28 28 29 27 22 21 21 22 24 26 28 29 32 34 36 38 40
32 33 33 32 30 29 28 22 17 12 13 13 17 21 20 19 17 17 18 19 20 22 23 25 27 29 30 29 28 22 20 21 22 22 24 26 28 30 31 33 36 39 42 44
38 34 31 30 29 30 28 22 19 18 16 18 20 21 20 19 18 19 20 22 23 25 25 26 29 29 29 26 21 21 20 21 22 23 25 27 29 32 34 37 40 43 46 49
34 28 28 24 26 26 22 22 21 20 19 21 22 21 22 22 22 22 23 24 25 26 27 28 29 28 23 21 20 20 21 22 24 26 28 30 32 33 36 39 42 44 47 50
27 32 24 28 26 22 24 22 23 23 21 21 22 23 24 26 26 26 26 27 29 29 28 28 26 22 20 19 19 20 22 25 27 29 32 34 36 39 41 41 43 45 48 50
24 23 27 27 30 25 25 23 25 25 25 25 26 28 29 30 29 28 29 29 28 27 27 24 21 20 19 19 21 23 25 27 30 32 35 37 39 41 43 45 47 49 51 52
23 27 31 30 28 27 24 25 27 28 27 27 29 32 34 33 32 32 32 29 28 26 23 20 18 17 19 22 24 25 27 29 32 34 36 39 41 43 45 48 50 52 52 51
40 33 38 33 33 28 24 27 29 30 31 33 36 38 37 37 35 33 28 27 25 22 19 16 18 19 20 23 25 27 29 31 33 36 38 40 42 45 47 49 51 51 50 48
24 24 23 25 28 30 30 31 35 36 37 37 37 38 40 32 25 24 25 25 23 20 19 18 16 18 22 23 26 28 30 33 35 38 39 41 44 46 48 50 49 47 45 42
31 33 29 27 26 25 25 31 33 35 36 35 36 37 28 25 24 24 22 20 17 17 14 14 18 21 23 25 27 29 32 35 37 38 40 42 45 47 48 47 45 42 40 38
24 24 21 18 24 26 27 27 29 28 30 32 29 27 27 27 23 19 15 15 13 11 14 17 20 23 25 26 28 31 35 37 38 39 41 44 46 46 44 42 40 39 38 36
19 18 22 22 24 23 21 21 23 23 25 25 25 26 25 17 12 14 13 9 11 14 17 19 22 24 26 28 31 34 36 37 39 40 42 44 44 42 40 39 38 37 36 35
20 19 20 19 16 14 13 15 19 22 24 25 23 13 11 14 14 8 9 13 16 17 19 21 23 25 28 31 34 36 37 38 40 41 42 42 41 39 38 37 37 35 35 34
11 12 11 9 10 13 16 17 19 18 14 11 10 13 13 9 8 12 16 18 19 20 22 25 27 29 31 34 36 37 38 39 40 42 42 41 39 38 37 36 35 34 34 35
7 7 8 8 9 11 11 12 11 10 9 10 13 11 9 11 15 19 21 22 24 26 28 30 31 32 34 36 38 38 39 39 41 41 40 39 38 37 37 36 35 35 35 35
3 1 2 4 6 7 8 8 7 8 10 12 12 13 16 19 22 24 26 28 30 32 32 33 34 35 37 39 39 39 39 40 40 40 38 37 36 36 36 35 34 34 34 34
0 1 3 5 6 6 6 7 10 12 14 16 18 20 23 26 28 30 32 34 35 35 36 36 37 38 39 40 40 39 40 40 39 38 36 35 34 34 34 33 33 34 33 33
2 2 3 5 6 8 11 14 16 17 18 19 22 24 27 29 32 34 36 37 38 39 39 39 40 40 41 40 39 39 39 39 38 36 34 33 33 33 32 31 31 32 31 31
5 6 7 9 11 14 16 17 18 19 21 24 26 29 31 34 36 37 37 38 39 40 41 41 41 41 40 40 39 39 38 37 35 33 32 32 32 32 31 29 29 29 29 29

GFSNGP_700_spd_051.txt.gz
Wind_Speed
31 25 22 27 28 27 30 29 26 24 22 18 15 18 14 16 14 13 17 17 15 15 19 21 21 21 22 20 23 22 20 21 23 26 29 32 34 35 37 36 36 36 37 37
33 27 24 25 24 25 26 28 29 26 26 20 19 18 17 16 16 19 20 20 21 21 24 28 27 26 25 23 23 24 26 27 30 31 32 33 34 35 35 34 36 36 38 37
29 26 27 29 27 27 27 27 25 28 25 20 19 19 20 20 22 19 24 22 22 26 26 27 32 29 27 28 29 30 32 30 30 32 34 34 34 33 34 35 36 37 38 38
19 20 17 22 21 23 28 27 24 24 23 22 22 23 24 20 21 26 28 27 25 23 24 26 32 33 31 28 26 25 26 29 31 32 31 31 32 33 34 35 36 36 34 31
21 22 21 22 21 21 20 23 23 24 22 21 21 24 30 29 28 30 29 30 30 29 24 25 27 26 24 23 24 26 28 29 29 29 30 31 31 31 31 32 31 30 28 27
16 20 19 27 23 15 16 24 18 19 20 18 16 25 22 24 25 26 27 27 27 25 25 26 26 25 24 24 25 26 27 28 27 28 28 28 28 29 28 26 25 24 24 25
26 17 18 18 17 19 20 29 13 14 15 14 16 20 20 23 24 24 25 26 27 27 27 25 24 23 23 24 25 26 26 26 26 27 27 27 27 25 24 23 23 24 24 26
22 23 19 17 20 22 27 18 15 15 15 20 18 24 24 22 22 22 24 26 28 28 27 25 24 24 25 25 25 25 25 25 26 27 27 25 24 24 24 23 24 26 26 27
19 19 28 25 27 27 21 18 20 19 19 23 24 22 23 22 23 23 24 28 29 29 27 26 26 26 26 25 25 26 26 26 27 27 25 25 24 23 24 24 25 27 28 30
23 17 16 16 17 17 20 22 21 24 24 25 25 23 23 27 24 25 27 30 31 30 28 27 27 27 26 27 28 28 28 29 28 25 24 23 23 24 25 25 27 29 31 33
31 30 26 24 24 22 22 25 25 23 23 23 23 23 24 26 26 27 29 32 32 32 31 30 30 29 29 30 30 30 31 29 25 24 24 23 24 25 26 26 28 31 33 35
28 20 25 30 28 28 28 26 27 21 23 24 24 22 23 26 28 30 33 34 35 35 34 32 32 32 33 33 33 33 31 27 25 24 24 25 26 26 26 28 30 32 33 35
27 23 25 24 21 26 26 28 26 23 21 20 24 25 26 30 31 34 36 37 38 38 37 36 36 37 36 36 36 33 28 26 24 23 24 24 25 26 31 29 29 31 33 36
23 31 31 32 32 26 27 33 29 27 27 27 28 28 30 32 36 39 40 41 41 42 42 41 41 41 42 40 37 28 23 21 21 23 23 24 25 27 28 30 33 37 39 39
27 28 30 26 25 25 27 28 31 34 32 28 35 36 36 37 39 43 45 45 45 46 46 46 47 46 43 41 32 20 18 21 21 22 23 25 26 28 29 31 33 35 38 41
27 28 26 29 32 31 28 33 33 31 30 29 34 39 37 42 44 44 46 47 48 49 49 48 47 44 37 29 25 22 21 16 20 23 25 26 27 29 30 32 34 37 39 42
25 27 32 36 34 35 39 38 37 35 37 43 45 42 42 42 47 49 47 49 46 50 48 44 40 38 27 20 21 21 16 18 22 25 26 28 29 31 33 35 37 38 41 43
25 27 26 29 33 32 33 36 38 41 41 41 38 36 39 42 42 42 44 47 46 43 40 36 28 24 23 21 18 16 18 22 25 26 28 30 32 34 35 37 39 40 42 43
36 37 35 34 29 30 30 29 30 31 33 34 35 36 37 36 35 34 34 33 31 27 25 26 23 20 19 18 17 19 23 26 28 30 31 33 34 36 38 39 40 42 43 44
41 41 40 38 36 36 32 36 36 35 31 28 25 25 26 25 24 22 20 20 21 22 22 20 19 19 18 19 21 25 28 30 32 34 35 36 38 39 40 41 42 43 44 44
18 20 19 18 19 20 19 19 18 16 15 13 12 12 13 14 16 18 19 20 19 17 16 17 18 20 22 24 28 31 32 35 37 38 39 39 40 41 41 42 43 43 43 43
3 3 1 1 2 3 4 4 4 4 5 7 9 11 12 14 15 15 13 13 15 17 19 21 23 25 27 30 32 35 37 39 40 41 42 42 42 42 42 42 43 43 42 41
5 5 5 6 5 4 4 4 3 3 5 7 9 10 10 9 9 10 14 16 18 20 22 24 26 29 31 34 37 39 41 42 44 44 44 43 42 42 42 43 43 42 41 39
8 9 7 6 4 3 2 1 2 3 4 4 5 6 8 11 14 16 19 21 23 25 27 29 32 35 37 39 41 42 44 44 44 44 43 42 42 42 43 42 41 40 38 36
5 3 2 1 1 3 3 3 4 5 6 7 9 12 15 18 20 22 23 25 28 30 33 35 38 40 42 43 44 44 44 45 44 43 43 42 42 42 41 40 39 37 35 34
1 1 2 3 4 4 5 6 7 8 10 13 15 18 20 22 24 26 29 31 33 36 38 41 41 43 44 46 46 46 46 45 44 43 42 41 41 40 39 37 35 34 32 32
3 4 5 6 7 8 9 10 11 13 15 18 20 22 25 27 29 31 34 35 37 40 42 44 45 47 47 47 46 46 45 44 43 42 40 40 38 37 35 33 31 31 30 29

GFSNGP_700_spd_057.txt.gz
Wind_Speed
40 25 24 32 30 34 33 34 32 27 21 20 19 20 24 20 19 16 23 19 22 22 19 13 18 19 25 26 28 25 25 23 23 17 17 17 17 18 21 24 27 30 32 33
42 42 32 23 37 32 37 35 35 27 26 25 18 21 19 23 19 23 30 29 25 22 23 23 21 19 20 21 25 25 25 21 19 18 19 20 21 24 26 29 31 31 33 32
39 42 41 37 37 37 32 26 33 35 30 25 26 25 28 21 18 20 19 25 23 21 23 26 26 29 23 24 24 26 26 25 24 23 25 25 26 29 30 29 31 32 31 31
27 26 16 22 27 28 31 33 26 24 18 15 16 19 30 22 13 18 23 25 25 28 31 31 33 32 26 23 22 26 28 28 28 28 29 30 30 26 29 30 30 30 31 32
27 29 20 38 29 20 24 28 28 28 30 22 17 17 24 22 18 19 23 24 27 31 32 32 32 35 32 28 26 29 30 30 31 33 33 30 28 30 31 31 30 30 31 34
13 7 18 25 26 29 21 30 21 20 19 20 21 30 27 27 22 22 24 28 32 30 31 34 35 37 36 32 30 28 30 33 33 29 26 28 30 30 30 30 30 31 32 33
5 4 16 11 18 22 24 19 22 23 21 21 24 24 24 27 25 22 22 25 27 27 30 30 31 31 31 32 30 26 27 26 26 25 28 29 30 30 30 30 31 32 32 31
14 7 8 6 16 21 29 20 21 22 19 17 16 16 20 24 19 21 23 23 22 24 26 27 27 27 27 28 27 27 26 25 26 27 29 30 29 31 31 32 32 31 33 33
10 18 13 14 24 19 16 21 12 21 18 25 18 23 27 21 20 22 23 23 22 22 24 25 25 25 26 28 28 28 27 27 28 31 31 31 32 34 34 33 31 30 32 31
14 24 21 28 21 23 25 22 21 10 13 28 29 28 22 20 20 22 21 24 23 23 24 26 27 28 29 30 30 30 30 31 32 33 34 35 35 35 34 33 34 34 32 31
23 25 21 19 23 22 28 28 28 18 6 13 18 10 19 23 20 22 23 23 24 24 26 28 30 32 32 33 35 35 35 36 37 38 39 39 37 37 37 37 35 33 30 28
34 29 30 11 17 9 13 14 35 25 16 17 20 20 26 24 23 26 26 24 23 24 27 31 34 35 37 39 40 41 40 40 41 41 41 39 38 37 37 37 33 29 26 28
25 22 23 27 22 21 25 20 17 16 23 24 24 26 29 27 26 28 30 28 27 28 30 33 36 39 41 43 45 44 44 44 43 43 41 40 37 36 35 29 26 29 29 24
31 28 27 29 30 31 28 26 27 25 27 28 24 27 28 29 30 30 29 32 29 32 34 36 39 42 45 47 49 49 49 47 44 44 43 40 37 36 33 32 31 30 28 27
24 25 30 31 30 32 33 28 28 28 27 27 28 28 30 31 30 32 31 31 37 37 39 39 43 45 48 50 51 50 47 42 40 40 42 41 35 29 30 29 26 26 26 26
27 29 33 31 31 33 35 37 29 26 27 27 26 26 30 31 34 34 38 41 39 41 44 44 47 48 49 49 49 45 44 46 44 33 27 27 27 27 27 25 26 27 28 30
30 32 31 25 24 23 22 23 23 25 24 24 25 26 27 31 36 35 37 42 42 43 44 45 45 41 40 39 39 39 35 29 26 27 27 26 25 25 25 27 28 29 31 33
24 22 23 24 26 25 23 21 20 17 17 18 20 24 28 31 34 37 38 37 38 39 39 38 37 34 30 27 25 24 25 26 25 23 23 24 25 26 28 30 32 34 35 38
30 29 28 27 28 28 28 29 28 29 28 27 28 26 26 26 27 28 28 29 32 33 31 29 23 18 17 17 19 19 19 20 21 22 23 26 28 29 30 33 35 37 38 41
26 31 32 34 36 36 35 36 35 35 32 28 26 25 25 23 22 22 22 22 22 19 13 10 11 13 14 15 16 18 19 21 23 26 28 30 32 34 36 38 40 41 42 44
15 16 17 16 15 16 17 18 17 14 12 11 9 9 8 9 9 9 7 6 5 6 8 10 12 13 14 16 18 21 23 26 28 31 33 35 37 39 40 42 43 44 44 44
9 8 8 8 6 4 6 8 9 8 8 8 7 6 5 3 2 2 4 5 6 8 9 10 13 15 18 21 24 27 29 31 34 36 38 40 41 42 43 44 45 45 44 44
14 13 12 12 11 11 10 8 7 6 5 4 3 1 0 1 2 3 4 6 8 11 13 16 19 22 25 28 30 32 34 37 39 40 42 43 45 46 46 46 45 44 43 42
11 11 10 10 11 9 7 7 6 5 4 4 3 2 3 4 6 8 10 12 14 17 20 22 25 28 30 32 35 37 39 41 43 45 46 46 46 46 45 45 44 43 41 39
5 6 6 7 6 5 5 5 5 5 5 5 6 7 8 10 12 15 17 20 22 24 26 28 30 33 35 37 39 41 43 44 45 44 44 43 42 41 40 39 39 38 36 34
4 4 4 4 5 5 5 6 6 7 9 10 12 14 15 17 19 21 23 26 28 30 32 34 36 37 37 38 38 38 38 39 40 39 38 37 36 35 34 33 32 31 30 29
5 6 6 7 8 9 10 11 12 13 14 16 18 19 21 22 24 27 28 29 30 32 33 34 34 33 32 33 34 34 34 34 33 32 30 29 28 27 26 26 26 25 25 24

GFSNGP_700_spd_060.txt.gz
Wind_Speed
41 36 39 21 27 26 40 39 30 30 36 33 32 27 22 19 21 26 27 28 24 23 23 23 19 22 21 21 22 23 25 23 21 19 18 18 20 21 20 19 20 21 25 28
32 42 36 41 35 30 39 32 32 30 34 30 29 22 28 29 27 28 29 27 26 28 24 26 25 22 21 21 19 21 24 24 25 23 20 19 19 21 18 20 24 26 29 32
22 23 35 29 47 47 31 39 35 30 31 32 30 25 25 25 29 31 27 28 29 29 31 30 26 25 21 21 21 24 25 25 26 24 22 22 22 22 22 24 27 31 30 32
21 18 14 40 37 46 44 32 32 38 26 22 30 25 23 28 33 32 24 22 25 28 29 28 29 29 27 25 24 24 28 27 24 26 25 26 26 27 29 30 31 31 32 32
10 16 22 25 24 25 42 48 29 34 28 25 24 24 20 20 17 28 28 25 26 25 26 28 31 32 31 30 27 25 26 24 26 28 30 30 30 30 32 30 30 30 30 29
17 11 8 15 31 26 18 26 18 25 26 28 27 30 29 25 22 25 25 26 24 27 27 28 29 30 32 33 32 31 30 29 30 30 29 32 32 29 28 29 30 30 29 29
15 9 21 18 21 21 22 28 23 22 17 19 24 26 27 24 21 23 21 23 25 24 25 26 26 27 31 32 34 33 34 33 35 34 33 31 27 28 29 31 31 32 32 32
7 7 12 12 13 15 17 16 18 23 22 24 19 18 20 21 22 18 18 23 24 24 25 25 27 27 29 33 33 32 33 35 35 33 29 28 29 31 31 32 33 33 33 34
13 23 28 14 16 17 9 10 18 22 16 27 19 19 19 17 19 22 19 18 17 18 21 24 26 27 27 29 28 27 27 28 29 29 31 33 33 33 34 34 34 35 35 34
26 27 26 14 23 32 23 17 14 14 27 26 16 8 18 22 19 15 15 17 17 18 20 22 23 22 24 25 25 26 28 30 32 34 35 36 36 36 36 37 37 37 36 34
32 35 29 22 12 9 17 20 29 19 23 17 8 6 11 20 27 24 20 21 22 22 23 23 22 23 24 24 26 28 32 35 37 38 39 39 39 39 39 38 38 37 36 35
33 27 24 22 29 25 16 11 10 17 33 25 11 6 8 13 16 20 26 28 27 27 27 26 24 24 25 27 29 32 36 39 40 41 42 42 42 42 41 39 38 37 36 34
24 25 26 22 13 10 18 19 22 23 20 15 30 18 16 18 20 22 24 28 29 31 30 29 27 26 28 31 33 36 39 41 43 44 44 44 45 45 43 41 36 35 36 32
27 22 24 21 17 18 22 25 26 23 22 22 21 23 22 23 23 26 30 31 31 29 29 29 30 31 33 36 37 38 40 42 44 44 44 45 44 42 42 44 43 37 38 38
21 22 22 22 22 25 25 29 28 26 26 26 26 28 31 31 32 30 33 33 31 28 28 31 39 39 40 41 42 41 42 44 45 44 44 44 46 46 40 35 35 34 34 35
22 21 22 23 26 27 28 29 30 31 33 31 26 22 23 23 23 27 31 34 33 34 34 32 37 39 42 42 40 40 39 39 39 39 38 37 36 34 33 33 32 32 33 34
31 29 29 29 28 28 27 26 25 26 25 23 23 23 21 20 23 27 30 33 34 40 37 34 39 40 38 35 33 33 33 34 34 34 32 30 29 28 28 29 31 32 33 35
28 27 25 27 26 26 26 26 25 23 21 19 15 15 17 21 23 26 30 34 36 37 38 37 37 33 30 30 30 32 29 27 24 23 23 24 24 25 27 29 31 34 35 37
26 24 25 29 30 27 28 28 29 30 29 27 27 25 24 23 23 25 30 34 34 32 30 26 26 25 26 23 19 17 16 18 19 20 21 23 25 28 31 33 35 37 39 41
29 29 29 29 27 27 27 28 29 31 31 29 23 20 20 22 24 25 26 25 23 22 20 20 21 18 15 14 15 15 16 17 19 22 24 27 30 33 36 38 40 41 43 44
11 12 13 14 14 14 14 14 12 10 10 11 10 10 11 12 12 13 13 15 16 14 12 11 12 12 13 13 14 16 18 21 24 27 30 33 36 38 40 42 43 45 46 48
10 9 9 9 8 7 9 10 9 8 7 6 6 5 5 4 5 4 6 7 7 8 9 10 11 12 14 17 19 22 25 28 31 34 36 38 40 42 44 46 47 48 49 49
14 13 11 10 9 9 8 7 7 6 5 3 2 1 0 2 3 3 5 6 7 9 11 13 16 18 21 24 27 30 32 34 36 39 40 42 44 45 46 46 47 47 47 47
8 7 6 6 7 7 5 5 5 4 3 2 2 2 3 5 6 8 10 11 13 15 18 20 23 25 28 30 32 34 36 38 39 40 40 41 41 42 43 43 43 42 43 42
6 6 6 7 6 5 6 6 6 6 6 6 7 8 10 11 12 14 16 18 20 22 24 26 28 30 32 33 35 36 36 36 36 36 36 36 36 35 35 35 35 34 33 32
5 5 5 6 6 7 7 8 8 9 10 11 12 14 15 17 18 20 22 23 25 26 28 30 31 32 32 31 31 31 31 30 30 30 31 30 30 30 30 29 28 27 27 27
6 7 8 9 10 11 11 12 12 14 15 16 18 19 20 21 22 24 25 26 27 28 28 28 27 27 27 26 26 26 27 28 28 28 28 27 27 26 25 25 25 24 24 24

GFSNGP_700_spd_063.txt.gz
Wind_Speed
20 20 24 33 25 28 38 43 34 35 39 41 34 33 29 27 20 26 27 23 24 25 25 21 18 18 16 14 16 19 22 24 22 21 22 20 18 20 22 27 24 23 24 26
31 18 13 26 36 42 34 29 32 31 43 33 31 26 30 29 27 25 27 25 26 27 26 26 24 20 17 16 17 19 20 22 21 21 21 19 21 21 21 23 24 25 28 28
21 26 31 17 36 40 39 46 42 33 32 30 34 32 30 31 29 30 33 30 25 25 29 32 28 25 22 22 22 20 20 19 22 23 23 22 21 22 23 24 23 25 28 29
14 16 5 10 11 19 41 43 43 46 30 31 31 26 29 31 30 34 31 30 31 24 23 27 28 28 25 25 25 24 22 19 22 26 25 24 25 26 27 27 28 29 31 33
6 5 23 48 26 19 24 38 42 45 44 28 31 31 26 21 25 26 28 30 28 27 27 22 25 28 27 28 28 28 26 22 23 22 23 25 27 28 30 30 32 32 34 33
11 4 6 39 38 33 31 43 33 36 40 47 27 36 36 23 26 28 22 23 26 34 28 28 25 28 29 29 28 28 27 29 26 25 26 26 26 30 32 34 35 38 34 33
17 10 14 25 26 31 19 21 16 16 16 21 33 34 36 26 29 27 28 23 23 26 33 26 26 30 31 29 27 29 31 30 30 28 29 29 32 32 32 34 35 33 33 33
14 10 12 21 14 9 13 4 21 16 23 26 26 22 21 28 20 22 23 27 24 22 24 25 23 21 21 23 26 30 31 32 31 29 31 34 34 31 31 32 32 33 33 34
22 19 16 27 26 21 26 16 5 11 16 21 21 27 31 25 20 18 23 22 20 18 18 20 18 19 21 22 26 29 31 31 30 31 32 32 31 31 32 33 34 35 35 36
23 30 23 20 18 16 19 23 25 12 8 15 19 24 24 28 24 23 17 14 18 16 17 17 17 19 21 24 27 29 29 29 29 29 30 31 32 33 35 37 38 39 39 39
38 37 33 29 22 20 17 18 22 23 12 16 19 22 25 27 26 24 23 21 17 17 19 20 21 23 23 25 27 28 29 29 30 30 31 32 34 36 38 39 40 41 41 40
31 21 19 21 27 23 20 23 17 16 16 13 32 19 18 23 24 20 18 20 21 21 23 26 26 26 25 26 26 27 28 29 31 32 34 36 37 39 40 41 42 43 43 43
26 28 26 26 27 23 22 24 25 20 18 19 19 14 24 21 15 24 20 18 19 20 22 24 23 25 26 24 25 26 30 30 31 34 36 38 40 41 42 44 45 45 45 45
36 32 29 27 24 24 22 23 21 21 21 19 20 18 17 18 23 23 21 23 22 23 26 28 25 26 26 28 30 35 34 36 34 33 33 35 37 38 40 40 42 43 44 43
32 32 29 29 27 25 24 24 24 23 21 21 23 24 24 24 25 23 24 26 25 30 32 31 30 30 30 31 32 32 35 34 31 33 33 32 32 33 35 37 37 38 39 39
28 30 22 21 19 20 21 24 23 23 22 23 25 26 22 21 19 22 23 24 27 31 34 35 36 35 34 37 34 34 33 33 31 30 29 30 32 34 36 37 37 36 35 34
28 24 19 22 21 20 21 22 22 22 23 24 23 24 22 21 20 21 23 26 30 34 35 39 38 37 39 36 35 34 31 29 28 28 30 32 33 33 32 31 30 30 31 32
20 18 21 19 19 20 21 22 24 23 23 21 21 23 21 15 16 20 24 29 37 39 38 36 34 34 31 27 24 23 24 27 28 30 30 28 26 25 25 26 28 30 32 35
21 25 21 20 22 24 26 29 26 30 30 27 27 29 29 24 24 26 25 28 31 32 31 29 24 22 21 21 22 24 25 24 23 22 22 23 23 24 26 28 31 34 37 39
14 17 21 24 25 25 28 27 26 25 23 23 22 21 21 23 24 23 23 21 21 20 17 17 17 17 17 17 17 16 16 17 18 20 21 23 25 28 31 34 37 39 42 45
8 10 10 12 14 15 16 14 13 10 9 10 6 6 7 9 9 9 9 10 11 12 12 12 10 10 11 12 14 15 17 19 21 23 26 29 32 35 38 41 43 45 46 48
8 8 7 7 7 6 8 9 9 7 6 4 2 1 0 3 3 4 5 6 6 7 8 9 10 12 14 16 18 21 23 26 29 31 34 37 38 40 42 43 44 45 45 45
13 12 11 11 10 10 10 8 7 7 6 4 3 3 3 3 4 5 6 7 8 10 11 13 16 18 21 23 26 28 31 32 34 36 37 39 39 39 39 39 39 40 40 40
10 10 9 10 11 11 9 9 8 8 7 6 5 5 6 7 8 10 11 12 14 16 19 21 23 25 27 29 31 33 34 35 36 35 35 35 34 34 35 35 35 36 35 34
7 7 7 7 7 6 6 6 5 5 6 7 9 10 12 13 15 17 18 20 21 23 25 26 28 29 31 32 33 33 32 31 31 30 30 30 31 31 31 31 30 29 28 28
4 5 4 5 5 7 8 9 10 11 12 13 14 15 17 18 19 21 22 24 25 27 28 29 29 29 28 28 28 27 26 26 26 26 27 27 27 27 27 26 26 25 26 26
4 5 7 8 8 9 10 11 13 14 15 16 17 18 19 21 22 23 24 25 25 25 25 24 23 22 22 22 22 22 22 23 24 25 25 25 26 25 25 24 24 24 24 24

GFSNGP_700_spd_069.txt.gz
Wind_Speed
11 11 12 14 12 12 18 21 17 17 21 20 20 21 20 22 23 24 20 20 17 19 18 18 21 19 17 16 16 12 12 13 13 15 16 19 23 28 33 39 33 26 26 35
12 14 17 19 18 15 19 15 18 14 19 21 24 18 16 18 22 24 21 22 25 22 21 24 25 23 21 17 21 17 14 11 9 7 12 17 19 22 24 29 27 27 23 23
5 8 11 16 21 20 20 20 23 20 20 19 20 29 25 19 15 22 23 22 26 28 29 30 26 27 25 23 22 25 19 15 16 16 16 13 15 20 22 25 27 28 27 27
4 4 6 11 13 15 20 21 20 26 30 27 30 31 33 35 31 27 25 23 29 27 29 33 30 26 25 27 28 27 28 22 21 19 17 17 19 18 22 25 28 29 30 31
6 9 17 27 16 11 15 17 22 27 25 24 24 22 24 32 35 36 28 27 26 30 30 32 36 34 35 32 28 29 30 28 25 25 22 25 25 24 22 26 29 31 32 33
7 3 4 2 6 4 12 21 9 17 20 22 26 23 18 24 36 37 32 26 29 28 27 29 31 34 33 33 31 28 28 30 31 29 26 29 29 28 25 28 31 32 33 33
21 7 13 13 13 5 2 8 17 18 19 21 23 22 18 16 23 23 32 31 30 31 27 25 23 28 37 37 35 33 31 31 33 33 31 31 33 34 31 30 33 34 34 36
13 10 12 5 4 4 13 16 18 19 19 23 24 23 19 21 21 17 17 26 33 34 31 27 31 27 27 39 35 33 34 35 34 34 30 34 35 36 34 35 36 38 39 38
15 12 7 6 9 22 26 27 21 28 22 26 25 23 23 22 32 26 21 18 23 27 40 35 26 26 22 27 32 35 38 34 31 31 32 34 37 36 37 38 40 38 37 41
23 24 26 24 21 24 26 31 31 36 33 24 32 29 29 27 28 17 18 21 24 23 23 31 33 32 35 36 30 30 28 26 27 30 38 36 35 36 36 30 29 27 29 34
27 28 28 24 30 31 29 30 28 28 30 26 30 30 21 21 24 12 15 12 15 19 19 24 24 21 21 24 24 24 24 26 32 33 33 32 30 28 27 23 24 28 35 35
30 28 28 30 28 29 26 23 26 29 27 26 25 28 27 20 8 8 15 20 21 17 22 15 16 20 21 21 24 23 23 24 24 24 25 25 23 22 21 20 24 26 28 31
22 22 26 30 25 26 30 29 26 29 30 25 27 29 27 20 5 17 16 20 16 20 29 19 16 21 24 26 25 25 24 26 27 24 22 24 23 21 18 20 24 27 28 29
25 24 24 28 32 32 35 32 33 33 32 27 29 27 18 15 13 16 24 23 22 23 23 27 25 13 17 24 26 26 26 24 25 24 19 19 16 18 19 20 23 25 26 26
29 27 27 27 33 37 35 30 29 33 30 27 24 21 14 14 16 18 23 23 23 23 26 28 27 25 24 24 18 26 25 22 23 25 24 21 22 23 24 27 28 27 25 25
15 16 26 31 27 30 29 24 32 28 20 26 28 26 20 21 22 21 23 23 22 23 24 26 28 27 26 26 26 27 27 27 27 27 26 27 26 25 24 23 23 24 26 29
21 24 15 21 27 29 27 30 24 22 23 17 17 19 23 22 22 22 22 21 22 23 23 23 24 24 25 24 25 25 22 21 20 22 22 21 22 21 22 24 26 28 29 30
27 25 21 22 22 24 25 25 20 22 21 21 22 18 22 24 25 23 22 22 20 19 18 17 16 18 17 15 13 13 14 15 17 17 18 21 22 23 25 25 25 25 25 25
24 21 22 19 20 23 23 21 18 17 17 19 20 19 18 17 16 16 16 14 14 12 13 12 12 13 12 11 11 12 13 14 15 16 18 18 18 18 18 18 19 21 23 26
17 17 14 14 15 15 14 16 17 16 14 12 11 9 8 7 7 4 4 5 6 5 2 4 6 7 8 9 9 10 11 11 11 12 13 14 16 18 21 23 26 28 30 32
11 9 7 7 6 4 3 1 3 1 2 4 4 3 3 3 4 4 5 6 4 3 4 5 5 6 7 8 9 10 12 14 15 17 19 22 23 25 26 27 29 30 31 32
6 7 8 9 9 9 11 13 12 12 12 10 8 7 8 7 7 7 7 6 7 7 8 9 10 12 14 16 17 18 19 19 20 21 22 23 24 25 26 26 26 26 26 27
13 12 12 11 11 10 11 10 10 9 8 8 8 7 7 7 8 9 10 11 13 13 14 15 16 17 19 20 21 21 22 22 22 22 21 21 21 21 20 21 22 23 24 25
9 9 8 8 8 8 5 5 5 5 5 6 8 9 10 11 12 13 13 14 15 17 18 19 20 20 21 21 21 20 20 18 18 17 17 16 17 18 19 21 22 23 24 24
4 4 4 4 4 4 5 7 8 8 8 9 10 11 12 13 14 16 16 17 18 19 19 19 19 19 18 18 17 16 16 15 15 15 16 17 18 19 20 22 23 23 24 23
1 1 2 4 6 7 8 8 9 10 11 11 12 13 14 15 16 16 16 16 16 15 15 15 15 16 16 16 16 15 16 16 16 17 17 18 19 19 20 21 22 22 22 21
4 6 7 8 9 10 10 10 11 11 12 14 14 15 15 14 13 13 13 13 14 15 15 15 16 16 17 17 17 17 17 17 18 18 18 19 19 20 20 21 21 21 21 20

GFSNGP_700_spd_072.txt.gz
Wind_Speed
8 5 4 6 8 9 11 11 14 17 18 18 20 21 21 25 24 23 27 18 20 17 16 17 20 19 24 27 26 26 24 23 23 24 24 25 29 34 37 38 40 40 39 36
12 12 13 15 16 14 13 13 15 14 13 13 10 14 20 23 21 24 23 30 20 22 22 19 18 20 24 27 27 23 24 22 20 23 22 23 24 27 33 37 40 41 45 45
13 8 9 16 25 22 19 14 13 14 12 9 16 18 18 21 29 25 25 28 29 24 22 29 27 25 25 28 30 28 27 28 25 23 21 17 15 18 24 28 33 38 41 43
5 5 6 6 10 13 14 15 13 16 15 15 19 21 16 21 24 32 32 29 32 33 30 26 29 30 34 34 33 32 28 32 32 27 25 24 22 22 21 22 26 32 34 38
8 14 17 21 10 11 8 7 8 6 7 9 12 18 13 18 23 28 30 40 35 34 39 36 31 32 36 36 35 34 33 33 34 35 34 31 28 25 27 25 24 27 32 35
8 7 5 2 6 9 6 6 3 5 9 13 14 12 13 19 20 22 28 32 36 44 37 35 36 34 37 37 40 39 38 34 35 37 40 38 36 32 32 31 31 29 31 35
21 12 7 11 9 8 5 3 6 9 12 16 16 16 19 19 26 25 23 23 31 38 42 39 36 32 33 38 42 43 44 43 41 37 41 42 38 37 39 36 35 32 31 34
18 14 12 8 12 13 11 10 15 18 19 23 23 22 25 23 24 29 26 28 26 30 43 39 41 36 33 34 33 38 45 44 45 41 41 43 43 42 39 33 35 33 35 36
14 12 8 6 5 13 18 23 27 30 25 26 29 26 24 29 26 30 31 31 32 31 28 39 38 39 34 35 34 31 32 47 48 43 41 42 43 35 41 37 36 42 41 44
15 15 16 16 20 25 28 29 26 26 28 29 29 25 27 30 29 28 31 30 20 24 30 25 35 41 44 40 37 34 28 29 43 50 46 40 38 40 37 38 40 43 44 42
19 17 17 17 21 26 24 26 25 22 26 27 29 29 26 28 29 31 34 31 17 15 19 19 18 24 34 42 43 44 43 44 43 40 37 38 35 34 36 40 45 43 42 36
16 19 22 24 26 27 25 27 29 27 27 29 26 26 25 29 30 32 34 17 13 13 16 18 13 15 19 23 25 26 26 30 32 32 32 33 34 32 33 38 35 33 28 27
26 27 22 22 22 24 22 23 24 29 32 33 32 33 31 32 35 34 15 13 16 17 18 22 21 15 19 16 17 19 24 28 29 29 27 28 28 29 34 34 31 29 28 29
26 25 24 27 27 26 26 28 31 33 33 35 37 38 33 30 31 36 26 19 18 18 21 23 23 24 30 18 13 15 23 28 32 35 37 32 26 24 21 20 22 23 25 28
28 26 28 30 28 25 27 29 29 28 30 28 28 31 34 28 23 14 12 15 17 19 18 23 23 23 22 20 23 23 22 18 21 24 23 25 24 24 22 23 25 26 26 25
20 26 25 24 25 26 26 25 25 25 26 31 29 29 28 25 25 24 21 19 19 22 19 19 20 22 23 24 25 25 25 25 27 25 26 26 27 29 25 23 21 19 20 21
24 23 26 30 32 27 27 22 23 25 26 25 24 18 16 9 9 13 16 13 14 18 21 19 17 16 15 13 15 15 15 17 17 18 18 18 19 18 19 19 19 20 22 24
28 29 30 31 32 28 26 20 22 22 20 21 21 16 8 12 16 14 17 18 19 20 17 15 12 9 9 8 7 7 8 10 10 11 12 13 15 17 19 21 22 23 24 25
27 26 25 25 26 23 22 19 18 17 15 14 12 10 10 9 9 9 8 8 9 10 12 10 8 7 7 7 7 7 8 9 10 12 13 14 15 17 17 18 19 21 22 23
21 21 21 21 19 18 17 15 13 13 11 6 2 3 4 4 3 2 3 5 6 5 3 3 4 6 6 6 7 7 8 9 9 10 11 12 15 17 19 21 24 25 27 28
12 12 11 9 8 7 5 4 1 2 3 4 5 3 3 3 4 4 4 5 4 3 3 3 4 6 7 8 10 11 13 14 16 17 19 20 21 22 23 24 25 26 27 27
4 4 4 5 5 6 8 9 9 9 8 7 6 5 6 5 5 4 4 4 6 7 8 9 10 12 13 14 15 16 17 17 18 19 20 21 22 22 23 22 22 21 21 22
11 11 10 10 9 9 10 9 8 7 5 4 3 4 4 5 6 7 8 9 10 11 12 13 15 16 17 18 18 18 19 19 19 18 18 18 17 17 17 17 18 19 20 21
7 8 7 7 7 6 4 3 2 2 3 5 6 7 8 9 11 11 12 14 15 15 16 16 16 16 16 16 16 16 15 15 15 15 15 14 15 15 16 17 18 19 19 20
5 4 3 2 2 1 3 5 7 7 7 8 9 11 12 13 14 15 15 15 15 14 14 13 13 13 14 14 15 15 15 15 15 15 15 16 16 17 17 18 18 19 20 20
3 2 2 3 5 7 8 8 9 10 10 11 12 13 14 14 14 14 13 12 11 12 13 13 14 14 15 15 16 16 16 16 16 17 17 17 18 18 18 19 19 19 20 20
5 7 8 9 10 10 10 11 11 11 12 13 13 13 11 10 10 10 11 12 12 13 14 15 16 16 16 17 17 17 17 18 18 18 18 18 19 19 19 19 19 20 20 20

GFSNGP_700_spd_075.txt.gz
Wind_Speed
11 5 2 5 11 14 17 19 18 17 16 13 14 13 14 18 17 18 22 25 20 14 14 15 18 17 20 25 31 34 35 31 29 30 30 32 34 34 35 38 40 38 37 38
13 9 8 11 13 15 17 16 17 16 19 18 14 9 8 11 13 16 16 16 19 25 13 13 16 21 19 19 22 29 34 32 30 30 27 28 29 31 33 36 40 44 44 43
15 11 11 14 19 20 19 18 16 17 12 7 8 11 12 12 14 18 23 27 29 31 32 19 14 22 28 26 26 26 29 33 32 32 30 26 28 31 33 32 33 36 39 42
12 5 10 11 6 6 15 18 17 15 12 10 11 12 15 12 12 19 21 23 32 34 33 30 28 27 26 28 32 30 31 32 34 37 36 33 32 30 28 25 24 23 27 32
9 15 17 19 16 12 11 10 9 8 5 5 8 11 11 10 15 20 24 24 23 34 40 37 38 32 33 31 31 33 36 37 38 39 41 40 38 35 35 33 31 29 27 27
8 14 10 11 6 6 8 12 6 4 2 4 8 7 9 15 19 23 21 26 31 22 24 45 45 42 35 35 38 37 35 38 39 39 42 45 45 42 42 40 38 37 35 33
23 16 12 8 4 3 14 7 4 1 3 6 8 11 16 18 18 20 20 27 33 33 29 24 31 44 42 38 35 38 36 37 43 43 44 41 40 46 51 50 45 42 43 39
19 11 19 10 9 9 7 4 3 4 7 14 19 19 17 18 18 19 26 28 31 34 33 37 30 29 38 43 43 38 36 35 37 40 50 51 50 56 52 53 50 49 49 43
17 16 6 7 7 4 7 10 13 18 21 25 27 24 23 17 22 27 29 31 33 33 34 35 37 32 31 39 43 45 41 39 36 39 41 48 44 44 45 48 51 50 44 47
11 13 15 10 3 10 17 17 23 28 31 29 27 23 23 25 29 28 30 30 32 36 37 35 35 34 30 30 35 36 43 40 37 30 30 37 44 43 49 42 41 37 44 48
17 13 11 7 11 21 20 20 27 29 30 27 25 24 24 26 25 27 30 32 34 34 34 34 31 25 18 23 23 31 38 39 35 41 41 38 34 38 35 42 43 46 54 40
12 14 15 11 18 24 25 25 27 27 29 29 29 29 30 33 32 33 33 34 33 35 35 30 26 26 18 12 15 14 17 21 26 31 33 43 45 42 40 44 39 36 43 39
20 16 16 22 31 25 23 24 25 27 28 28 31 31 33 35 35 37 36 34 31 23 22 23 24 25 30 34 27 21 16 17 17 18 20 22 23 28 35 36 36 42 45 39
25 24 25 24 27 26 28 30 30 31 33 33 34 36 36 35 34 33 34 30 25 30 27 21 23 23 26 30 23 25 23 17 19 20 28 31 30 31 34 32 34 37 39 43
23 24 30 26 25 26 23 21 26 29 29 31 29 30 29 31 34 34 32 31 24 16 23 17 19 23 24 26 28 22 25 19 15 15 17 21 22 24 22 20 21 22 21 21
29 31 26 25 28 26 26 28 26 27 25 25 25 26 27 27 29 24 26 25 20 24 25 25 23 19 23 26 28 29 25 20 19 17 18 22 21 21 18 16 16 16 16 16
24 27 25 26 27 29 31 31 28 27 25 25 24 23 21 19 18 14 11 10 8 8 8 12 15 17 17 18 19 17 14 11 11 12 13 14 13 14 13 14 14 15 16 17
27 29 30 30 31 31 31 28 25 24 24 23 22 19 17 14 14 12 10 8 7 7 8 11 11 10 11 11 12 11 10 9 8 8 8 9 10 11 13 14 16 17 19 20
26 27 26 26 25 24 22 22 19 18 18 16 15 13 12 11 10 9 7 6 7 9 11 8 8 7 8 7 7 7 8 9 10 11 11 12 12 14 15 16 17 18 19 21
20 19 19 19 18 18 16 14 13 12 11 11 9 6 5 5 4 3 2 3 4 5 4 3 3 4 5 5 6 7 7 8 9 10 11 13 15 17 18 20 22 23 24 25
15 14 12 11 9 7 6 6 5 5 4 4 4 3 1 1 1 2 2 3 3 5 6 6 6 7 9 10 12 13 13 14 15 16 18 18 19 21 22 23 24 25 25 26
6 4 3 2 3 4 6 6 7 7 6 6 5 3 2 1 2 4 6 9 10 11 12 13 14 15 15 16 17 18 18 19 19 19 20 20 21 21 22 21 21 21 21 21
7 7 7 7 6 5 6 6 6 5 4 2 1 2 5 7 9 10 11 12 13 14 15 16 17 18 18 18 18 18 18 17 17 17 17 17 17 17 18 18 18 19 20 21
5 5 5 5 5 4 3 1 1 2 4 7 9 9 10 11 13 14 14 15 16 16 16 16 16 15 14 14 14 14 15 15 15 16 16 17 17 17 18 19 19 20 20 21
4 3 3 2 2 2 4 7 8 9 10 11 12 13 14 15 15 16 16 15 14 13 13 12 13 13 14 14 14 15 15 15 15 16 16 17 17 17 18 19 19 20 20 21
4 5 6 6 8 10 11 12 12 13 14 14 15 15 16 16 15 14 13 12 12 13 13 14 14 15 15 15 15 16 16 17 17 17 18 19 19 19 20 20 20 21 21 21
9 10 11 13 13 14 14 14 15 15 15 15 16 15 15 13 12 12 12 13 14 14 15 15 16 17 17 18 18 19 20 20 20 21 21 21 22 22 22 22 22 22 22 22

GFSNGP_700_spd_078.txt.gz
Wind_Speed
13 14 7 8 16 17 18 24 13 11 15 10 11 10 4 6 6 5 6 9 17 14 13 9 5 20 22 18 19 23 34 34 31 32 33 33 32 32 34 35 35 33 34 35
18 13 9 16 11 14 7 13 13 11 14 5 12 1 4 4 4 13 21 22 22 28 24 22 13 5 14 23 19 19 21 30 35 37 36 35 34 34 34 34 35 36 37 38
18 12 14 13 17 13 11 12 15 14 12 13 4 4 3 6 9 15 18 17 16 23 27 30 25 23 20 17 20 30 26 23 28 33 37 37 35 34 30 30 32 33 34 36
16 12 7 13 9 6 8 14 16 16 13 4 5 7 6 5 6 9 17 16 18 19 23 28 28 28 32 30 27 22 33 33 28 29 33 36 36 36 34 33 31 32 34 33
17 13 16 14 6 6 9 10 12 16 9 7 3 7 7 5 5 12 15 14 20 30 22 22 24 26 31 30 30 28 27 31 36 34 36 34 37 38 40 40 39 37 35 33
8 9 6 12 18 11 8 13 8 8 8 3 2 5 6 8 10 12 14 21 28 26 25 25 27 27 25 27 35 38 33 31 34 34 37 41 40 40 42 44 43 42 42 40
23 11 7 10 12 2 16 8 11 7 4 5 7 6 14 9 10 13 20 27 22 23 27 29 25 27 32 31 30 31 38 39 36 38 38 36 41 42 43 47 50 47 45 46
18 11 16 7 7 9 11 12 11 10 2 9 7 9 13 12 7 18 25 26 26 27 29 30 33 32 28 33 34 32 31 38 39 39 41 41 43 44 43 47 43 46 48 53
16 17 5 7 11 12 12 1 2 6 12 12 12 16 18 17 18 21 22 25 29 30 29 31 34 38 40 36 33 34 33 34 40 39 39 40 45 42 44 47 49 53 55 61
17 15 11 16 21 10 10 10 13 16 17 20 22 23 21 21 20 20 24 25 26 29 31 33 35 38 38 37 38 36 36 32 35 36 40 43 43 44 39 44 49 48 47 45
16 15 5 12 13 8 5 11 15 19 23 25 27 28 26 30 26 28 29 29 31 32 33 33 31 33 35 32 34 33 32 32 30 32 30 38 38 42 35 32 32 38 45 46
5 6 6 2 5 3 10 16 22 20 23 25 26 25 25 28 28 29 32 34 35 36 36 35 34 30 30 28 27 28 28 20 24 25 30 31 39 44 46 43 46 52 47 46
13 3 7 17 19 17 20 23 25 26 26 28 28 29 31 32 33 36 38 37 37 34 34 34 34 32 28 27 27 28 28 22 28 34 31 21 30 41 47 47 45 48 56 49
12 11 18 21 26 25 24 25 25 25 21 24 27 29 29 31 32 35 33 34 35 34 34 33 33 32 31 30 24 24 24 23 24 24 22 23 17 18 16 16 17 22 25 31
15 18 22 22 22 22 17 20 23 22 25 26 28 28 27 26 27 29 28 29 28 30 29 29 22 17 18 19 21 21 22 22 19 20 20 20 18 12 10 10 12 8 9 12
19 22 24 23 23 21 25 25 26 27 28 28 27 26 25 25 26 26 24 22 19 19 18 21 15 13 13 14 16 17 18 15 13 13 12 10 13 12 11 12 10 10 9 9
20 23 25 25 24 22 24 25 27 29 29 28 26 25 24 22 21 23 19 15 14 12 13 15 14 11 14 12 11 11 10 10 11 10 9 8 8 9 10 10 10 10 11 12
27 26 25 25 27 27 26 27 27 27 25 23 21 20 18 17 15 17 15 14 13 12 12 13 14 12 10 10 11 11 10 9 9 10 11 10 11 12 12 13 13 14 15 15
26 26 26 25 23 23 23 23 22 21 20 19 16 14 13 13 13 13 12 11 10 11 11 9 9 7 7 8 9 9 9 10 10 10 9 10 11 12 12 13 14 15 16 18
17 18 19 20 20 19 19 18 17 15 14 12 11 9 9 8 7 6 6 6 5 5 6 7 7 7 8 9 11 11 12 13 13 14 15 16 16 17 18 18 19 20 21 22
13 13 12 11 11 11 10 9 8 8 7 7 6 4 3 3 2 1 1 3 4 6 9 10 12 12 12 13 14 15 15 17 17 18 18 19 19 20 20 20 20 21 21 21
8 7 6 4 3 2 3 3 3 3 3 3 2 1 1 1 3 5 8 10 11 12 13 15 16 17 18 18 18 18 18 17 17 16 16 16 16 16 16 16 16 16 17 17
1 2 3 3 4 3 3 3 3 2 1 1 3 5 7 9 11 11 13 14 15 16 17 18 18 18 18 17 16 15 15 15 14 14 14 14 14 14 15 15 16 16 17 18
2 1 2 1 1 1 0 1 3 4 6 9 10 11 12 13 15 16 17 18 18 18 18 17 17 16 15 15 15 15 16 15 15 15 15 15 16 16 16 17 18 18 19 20
2 3 4 4 5 6 7 9 11 12 12 12 13 14 16 16 17 17 17 16 15 14 14 14 14 15 15 15 15 15 15 16 16 17 17 18 18 19 19 20 20 20 21 21
7 8 9 9 10 12 13 15 15 15 15 15 16 16 16 16 16 15 14 13 13 13 13 14 14 15 15 16 16 17 17 17 18 19 19 19 20 20 20 21 21 21 22 22
11 12 13 14 16 17 17 17 18 17 17 17 17 16 16 14 12 11 11 12 12 13 13 14 14 15 15 16 17 17 18 18 19 20 20 21 21 22 22 23 23 23 23 23

GFSNGP_700_spd_081.txt.gz
Wind_Speed
21 14 13 15 8 11 21 24 12 15 15 10 10 14 5 7 3 10 11 7 10 12 12 9 8 11 22 20 14 15 13 16 30 30 30 30 30 31 31 31 30 30 30 30
16 15 12 14 11 12 11 10 4 20 17 13 1 2 7 7 9 11 16 13 15 16 19 19 14 14 15 18 21 23 21 11 12 21 35 33 34 35 36 35 35 35 36 36
13 12 15 11 11 13 13 11 6 8 1 3 8 5 9 4 7 7 8 11 13 20 17 22 24 21 23 18 21 25 28 23 19 20 21 23 29 36 40 40 41 38 37 36
10 16 5 8 7 4 7 5 10 10 5 3 13 11 7 5 3 7 12 15 18 16 15 15 16 18 25 28 23 21 23 30 33 33 29 26 27 29 30 38 43 41 39 37
8 13 17 12 12 5 4 2 3 9 9 12 6 14 14 10 2 9 15 18 19 20 23 22 22 23 22 21 26 33 33 32 36 37 38 42 37 32 30 31 35 40 43 41
11 6 5 14 15 19 8 8 4 10 16 16 17 12 11 6 6 10 14 16 17 16 18 19 18 17 16 20 23 26 29 34 36 38 39 39 41 43 43 40 41 39 39 46
27 15 8 10 13 6 14 7 13 19 18 19 17 13 8 10 13 15 15 21 21 18 22 23 23 22 20 18 18 22 27 32 32 33 41 44 43 41 43 42 47 51 50 48
24 12 12 6 8 10 13 19 22 19 18 18 20 14 13 15 13 15 19 21 25 25 25 25 25 27 28 29 29 27 26 26 31 33 34 42 47 45 45 45 49 43 39 41
17 12 7 9 13 15 16 20 22 17 14 10 12 14 19 18 20 22 22 20 21 23 25 27 28 29 29 31 31 32 33 34 31 30 34 36 42 46 47 44 48 46 39 37
15 11 11 10 20 16 12 14 6 4 6 9 10 12 18 19 23 25 25 26 25 27 27 27 29 30 30 31 32 33 35 36 37 33 32 33 37 42 44 47 45 45 45 47
14 12 12 10 14 16 12 5 4 9 10 11 13 15 18 21 23 25 25 25 25 26 29 31 31 31 30 29 30 32 33 33 33 32 32 37 35 37 39 44 45 45 44 48
4 1 19 12 9 4 2 7 11 17 17 15 16 17 18 20 23 26 27 28 30 32 34 32 32 31 30 31 32 32 31 28 28 29 27 23 26 33 40 38 41 44 48 50
5 4 5 8 12 15 15 16 17 19 20 16 15 15 17 20 23 24 25 27 28 29 29 29 31 32 33 34 30 28 28 25 21 25 22 21 23 19 22 26 31 35 38 60
15 11 8 8 11 15 15 16 16 14 15 16 17 20 23 24 24 24 24 24 24 24 24 25 25 25 25 22 20 17 19 20 21 23 21 20 21 19 18 15 12 12 12 11
12 16 15 16 16 16 19 20 17 19 20 20 22 23 25 25 24 23 23 23 22 21 21 20 19 17 16 17 17 16 13 18 18 19 18 15 13 15 10 10 7 7 5 5
18 19 18 20 21 18 21 22 21 22 24 25 26 26 26 24 23 22 19 18 17 15 15 14 14 12 12 11 12 11 10 9 9 10 12 11 10 10 10 8 6 5 4 3
16 17 17 21 23 22 22 23 25 25 26 27 27 26 23 22 21 17 15 13 12 12 12 14 15 15 13 11 10 10 11 9 9 9 8 8 8 7 7 7 7 7 7 8
23 23 24 25 25 25 25 26 25 23 23 23 22 20 19 17 16 15 13 12 11 11 12 12 12 11 10 9 10 9 8 7 7 8 9 9 10 10 10 10 9 9 9 9
26 25 24 24 24 23 21 21 22 20 19 18 17 15 14 13 11 11 11 10 9 8 7 7 7 7 7 7 7 8 9 10 10 10 11 12 14 14 14 15 15 16 16 16
19 20 21 20 20 19 18 17 16 15 14 13 12 11 9 8 7 6 6 5 4 5 5 5 6 9 11 13 13 13 14 14 15 16 16 16 17 17 18 19 19 19 19 18
14 13 13 12 12 11 10 9 8 7 6 6 5 4 4 3 2 2 3 4 5 8 10 10 11 12 14 15 16 17 18 18 18 18 17 18 17 17 17 17 17 17 17 17
7 6 6 5 4 3 3 3 2 2 1 1 1 1 2 3 5 7 7 8 10 12 14 15 15 16 17 17 17 16 16 15 15 15 15 15 15 15 15 16 16 16 16 17
5 5 5 4 4 3 2 2 1 0 1 2 4 6 8 8 8 9 11 13 15 15 16 16 16 16 16 15 14 14 14 14 14 14 14 14 15 15 15 15 17 17 16 18
4 4 3 3 2 2 3 3 4 6 8 10 12 11 10 11 14 15 15 16 16 16 15 14 13 13 13 14 14 13 13 14 14 14 14 15 15 16 17 17 17 18 19 19
5 6 6 6 7 8 9 10 11 12 13 14 14 15 16 16 15 16 16 15 14 14 13 13 13 13 13 14 13 14 14 15 15 15 16 16 17 18 18 19 20 20 21 21
10 11 11 12 13 13 15 16 16 16 15 15 16 17 17 17 17 16 15 14 13 12 13 14 13 13 13 14 14 14 15 16 17 17 18 19 19 19 20 21 21 21 21 21
13 14 14 15 16 18 19 19 18 17 18 17 17 16 16 16 14 13 12 12 12 12 12 11 12 13 13 14 15 16 16 16 18 18 18 19 19 19 21 21 22 22 23 23

GFSNGP_700_spd_084.txt.gz
Wind_Speed
12 12 16 16 22 19 12 26 13 14 11 14 22 14 8 11 9 9 11 10 16 14 15 14 10 8 9 16 20 18 13 13 7 2 11 22 29 31 31 30 29 29 30 30
18 16 14 19 16 21 13 14 21 18 18 12 12 4 17 12 11 2 11 7 6 6 4 6 8 12 15 16 16 15 20 25 22 19 14 13 15 22 31 33 34 35 36 36
10 10 14 11 15 17 22 12 8 6 3 4 5 10 14 11 7 1 5 6 8 9 13 15 13 16 16 19 23 25 26 24 25 29 29 26 24 23 25 30 30 35 38 41
6 11 4 9 10 11 15 12 12 11 9 10 5 21 14 13 10 9 6 1 1 3 5 7 10 11 11 14 17 21 22 24 27 25 26 30 34 33 28 29 29 28 30 36
8 10 19 28 7 7 2 7 10 17 13 15 18 21 16 9 9 7 3 4 6 9 11 12 10 11 12 14 18 20 20 22 27 31 35 36 36 36 38 39 40 37 36 36
13 4 3 9 10 13 12 9 5 21 19 20 19 17 17 10 8 6 8 11 14 15 16 16 14 12 11 10 13 16 20 23 26 29 31 35 41 42 41 42 39 40 45 49
27 13 13 27 14 6 11 7 10 21 25 24 22 18 14 10 7 6 9 9 13 19 18 17 17 17 17 16 15 15 16 17 20 23 28 32 36 38 40 43 46 45 43 44
26 15 14 25 16 12 11 18 17 16 17 19 17 15 11 8 7 7 9 12 16 19 20 19 18 18 20 21 21 21 21 22 22 23 25 27 30 36 42 43 44 49 51 49
13 17 16 15 14 14 13 16 20 19 20 15 16 13 8 10 15 18 20 23 23 24 24 23 23 22 22 23 24 25 25 27 28 30 33 35 33 32 33 40 45 45 47 50
13 11 17 19 13 13 17 19 18 19 18 23 20 15 11 14 18 19 19 21 21 23 24 23 22 25 28 29 27 27 27 27 30 32 34 38 41 43 40 38 37 40 41 41
9 16 13 13 8 14 15 15 9 6 3 3 4 9 12 13 14 15 18 19 22 23 24 25 27 28 29 28 29 30 31 31 31 33 35 35 35 35 36 37 36 34 35 35
6 3 11 13 11 2 5 7 5 2 3 5 6 9 12 13 14 15 17 19 21 21 23 25 25 27 27 27 28 30 31 32 31 28 29 27 29 34 33 33 30 28 25 33
12 6 4 5 6 6 9 9 10 9 9 8 7 10 12 14 16 18 19 20 22 22 22 22 23 23 24 25 26 27 26 24 20 19 24 27 26 27 29 29 27 21 15 11
8 7 5 7 11 11 6 7 11 9 9 11 12 13 14 16 18 20 22 22 22 23 23 22 22 21 21 21 21 20 19 19 22 22 20 24 24 20 18 19 19 16 14 11
10 12 12 14 14 13 13 13 12 14 15 17 18 19 21 22 23 24 24 23 23 22 21 19 18 17 16 16 17 17 17 17 16 16 14 13 12 12 12 11 10 9 9 8
15 16 21 17 14 17 18 20 19 18 18 19 21 22 23 23 23 22 21 20 19 19 18 17 15 15 14 14 15 16 15 14 13 13 12 11 10 10 9 8 7 6 5 5
23 24 21 19 19 21 22 21 22 21 22 22 21 20 19 19 19 19 18 17 16 15 15 15 15 15 14 12 10 10 11 11 11 10 10 11 10 10 10 10 9 8 8 8
17 18 22 24 25 24 24 23 22 21 19 18 18 18 17 16 15 15 14 14 14 15 14 13 12 11 10 9 7 7 7 7 8 9 9 10 11 11 12 12 12 13 13 13
22 23 23 22 21 20 20 21 20 20 19 18 16 14 13 12 12 12 12 12 12 11 10 9 8 7 7 7 8 9 10 11 12 13 14 15 15 16 16 17 17 16 17 17
19 20 19 19 18 17 17 17 16 14 13 12 10 9 8 8 8 8 8 8 7 7 6 8 9 9 10 12 13 14 15 16 16 17 18 18 18 18 18 17 17 16 15 15
15 15 15 14 13 11 11 10 9 7 6 5 5 4 5 5 5 6 6 7 7 8 8 9 12 14 16 17 17 18 18 18 18 17 17 17 16 16 16 15 15 15 14 14
8 7 6 5 5 4 4 3 3 2 2 1 1 3 4 6 7 9 9 9 10 11 13 14 16 17 18 18 18 17 16 16 15 15 15 15 15 16 16 15 15 15 15 16
3 3 3 2 2 1 1 1 1 2 3 4 6 9 11 12 12 12 12 13 14 16 17 18 18 18 17 16 16 15 15 15 15 15 15 15 15 16 17 16 16 17 18 18
3 4 4 4 4 5 5 6 7 9 10 12 13 14 14 14 14 15 16 17 17 18 18 17 16 16 16 16 15 15 15 15 15 15 15 16 17 17 18 18 19 20 20 21
8 9 9 9 10 10 11 11 12 14 16 16 17 17 17 17 17 17 18 18 17 17 16 16 16 16 15 15 16 16 16 15 15 16 16 17 18 19 19 20 20 21 22 22
13 13 13 13 14 14 15 16 17 17 18 18 18 18 19 19 18 18 17 16 16 16 15 15 14 14 14 13 14 14 15 16 16 17 18 18 18 20 21 21 21 22 23 24
15 15 15 16 17 19 20 20 20 20 19 19 19 18 18 18 17 16 15 15 14 14 14 13 13 13 13 14 15 15 16 18 19 19 18 19 19 21 22 22 22 23 23 24

GFSNGP_700_spd_087.txt.gz
Wind_Speed
9 9 14 17 20 19 21 21 17 18 18 10 14 16 11 7 15 14 23 20 18 22 30 30 28 24 23 20 20 18 14 14 13 13 14 19 27 28 28 28 28 28 28 28
16 16 18 21 16 21 20 20 20 23 20 17 18 26 16 9 7 11 10 14 11 13 17 14 14 12 11 11 11 10 12 16 19 18 16 21 19 22 25 29 32 33 33 32
8 11 16 12 12 12 16 20 18 15 10 8 5 8 16 14 11 8 11 11 7 6 9 4 4 5 10 12 15 18 18 20 22 22 25 30 28 27 22 22 26 27 27 26
10 13 3 5 7 11 9 13 17 16 17 10 1 9 12 10 12 9 4 4 7 5 5 3 5 7 10 11 13 15 18 21 22 21 24 26 26 28 29 33 30 30 30 30
7 9 16 28 15 11 17 14 17 17 16 17 10 8 2 16 7 10 7 6 6 3 1 1 2 5 8 11 15 18 19 19 20 21 25 29 31 32 34 35 35 37 39 40
13 5 5 5 11 7 17 19 16 16 17 17 20 14 15 16 13 9 5 7 4 5 6 7 7 7 9 11 13 15 17 19 20 21 23 25 27 30 32 35 37 39 40 43
23 13 17 23 27 26 10 8 10 12 21 20 24 20 14 18 10 4 4 2 4 6 8 9 10 10 10 12 13 14 16 18 20 22 22 23 24 25 26 30 35 39 41 43
11 11 12 25 25 20 15 15 14 17 24 25 26 22 18 13 9 5 5 9 10 12 14 15 15 15 16 15 15 15 15 16 17 19 20 21 22 24 25 26 29 32 36 40
15 8 16 15 13 13 9 13 14 15 22 13 12 13 11 8 9 10 11 15 17 16 17 18 17 17 17 18 19 20 20 19 20 21 22 23 25 27 30 32 33 31 32 35
9 11 13 11 7 7 13 15 15 15 18 20 19 19 14 15 14 12 12 16 18 17 18 19 18 19 20 21 21 20 21 22 23 24 25 28 30 31 31 31 30 31 32 33
9 12 15 14 15 13 16 19 23 22 15 11 11 9 6 8 11 12 11 12 12 14 14 15 16 18 19 20 21 22 23 24 26 28 27 30 30 29 27 25 27 30 30 28
8 5 8 14 12 12 10 7 7 4 6 6 7 8 9 10 9 10 12 13 15 16 16 17 17 17 19 20 21 22 24 25 27 28 27 27 26 26 25 25 25 26 26 26
6 4 2 4 7 6 3 1 1 4 5 7 11 12 12 12 14 15 16 16 17 17 18 19 20 20 21 21 22 23 23 23 23 24 24 25 26 25 26 27 25 24 23 23
4 4 4 6 8 9 7 5 5 11 9 12 12 14 15 16 18 19 20 20 21 21 22 22 21 20 20 20 20 20 20 20 20 19 20 20 21 21 21 19 19 19 19 18
8 9 9 9 14 13 10 11 12 12 14 15 16 17 19 20 21 20 21 21 21 21 21 20 20 20 20 20 20 20 20 20 19 18 18 19 18 17 17 16 16 16 16 15
13 15 16 19 15 11 13 15 17 16 16 17 18 20 22 22 22 21 21 21 21 20 20 20 20 20 20 20 20 20 19 18 17 16 15 14 14 15 15 15 15 15 15 14
20 20 18 16 15 16 18 20 20 20 20 21 21 22 22 22 22 21 21 20 20 19 19 19 19 19 20 19 18 17 16 15 14 14 13 13 12 12 13 13 14 13 13 14
13 12 14 16 18 19 20 19 17 17 17 17 17 18 19 20 20 20 19 19 19 19 18 18 17 16 16 15 14 14 13 12 12 12 13 13 14 15 15 15 17 17 18 18
19 21 21 20 20 19 18 17 16 14 13 13 14 14 15 15 15 16 16 16 16 15 15 14 14 13 11 11 11 12 13 14 15 16 17 18 19 19 20 21 20 21 20 20
21 21 20 19 18 17 17 16 14 13 11 10 10 10 10 10 11 11 12 12 12 11 11 10 11 11 11 12 13 15 16 17 18 19 19 20 20 20 20 19 19 18 18 17
18 17 16 15 14 13 12 12 11 9 8 7 7 8 8 8 9 9 9 10 11 12 12 12 13 14 15 16 18 19 20 20 20 19 18 18 18 17 17 17 18 18 18 18
7 7 7 7 7 7 6 6 5 5 4 5 5 6 7 9 10 12 13 13 13 13 13 14 15 17 18 19 20 20 19 19 18 18 18 17 17 16 16 17 17 17 18 18
4 5 6 6 6 6 6 6 6 6 7 8 10 12 13 15 16 16 16 16 16 16 17 18 19 20 20 20 19 19 19 19 18 18 18 18 18 17 17 18 18 18 18 19
8 8 8 8 9 9 10 11 12 13 14 15 16 17 18 17 18 18 17 18 18 19 20 20 20 20 19 19 19 19 18 18 19 18 18 18 18 18 19 19 20 20 21 21
10 11 11 11 12 12 13 14 15 16 18 19 20 20 20 20 20 21 21 20 20 20 19 19 18 18 19 19 18 17 17 16 16 17 17 19 20 21 21 21 21 21 21 21
13 13 13 13 14 16 17 18 19 20 21 21 21 21 21 21 20 19 19 19 18 18 18 17 18 18 17 16 16 16 16 16 17 18 19 20 21 21 21 20 21 21 22 23
15 15 15 16 18 19 20 21 21 21 20 20 20 19 19 19 18 18 18 17 16 16 17 16 15 15 15 15 15 16 17 18 19 19 19 21 22 23 23 23 23 23 23 24

GFSNGP_700_spd_090.txt.gz
Wind_Speed
3 1 6 9 11 11 16 21 19 29 29 30 26 20 18 18 3 17 18 11 10 12 19 25 33 34 32 29 25 24 20 16 15 14 15 15 17 19 21 23 24 24 24 24
6 7 9 13 14 14 15 17 23 26 28 18 19 12 15 12 9 10 21 25 22 22 19 18 27 23 22 22 18 17 18 20 22 26 26 24 19 14 23 20 17 24 28 29
3 5 10 9 5 6 13 15 17 21 19 24 22 7 8 10 7 6 8 19 22 21 18 18 22 15 13 13 14 14 16 17 19 22 23 24 24 23 27 33 37 27 25 24
3 6 2 3 10 10 13 15 17 17 21 20 14 11 11 17 7 5 3 4 7 14 15 17 8 5 1 3 6 11 12 15 17 18 19 21 22 22 24 27 31 32 30 28
2 3 12 17 13 4 13 19 18 18 16 20 17 5 13 7 2 2 17 16 15 14 18 15 7 3 2 2 6 9 10 13 14 16 18 21 25 27 27 27 28 29 30 31
3 1 2 2 4 11 19 27 13 16 17 17 13 7 3 8 5 8 11 13 14 13 11 11 6 5 6 7 8 9 12 14 15 17 19 21 23 25 27 28 31 33 35 36
10 5 8 14 19 21 13 15 17 18 15 8 15 10 17 8 11 7 6 8 9 5 3 2 3 5 6 9 12 12 14 16 17 18 19 20 22 23 24 25 26 27 29 31
1 5 9 9 14 11 13 13 16 17 10 16 19 18 19 19 13 2 3 3 2 8 10 10 10 11 11 11 13 15 15 17 18 20 21 21 20 20 21 22 23 25 27 29
8 11 27 25 18 12 8 8 9 12 10 19 17 15 13 7 4 6 5 5 6 10 13 12 12 12 12 13 14 15 17 17 18 19 20 20 21 23 23 24 25 27 27 26
13 2 11 14 13 5 7 9 6 11 8 12 11 7 6 8 5 8 6 8 10 13 11 12 13 13 13 15 16 16 17 17 17 17 19 20 20 22 23 24 25 25 26 26
3 2 6 11 14 10 12 14 13 15 17 20 20 13 5 6 8 7 7 11 12 11 10 10 12 13 14 14 14 15 16 16 17 19 18 19 20 20 21 21 22 23 24 26
8 5 2 4 1 4 4 8 8 8 13 18 15 9 5 7 7 9 11 12 13 15 15 15 16 16 17 17 17 17 18 19 19 20 20 20 19 19 19 20 21 21 21 21
4 3 3 4 4 7 6 4 5 6 7 7 6 6 7 11 12 13 15 15 15 16 17 17 18 19 19 19 19 19 19 19 19 20 20 19 19 19 18 18 17 17 17 18
6 5 5 5 7 10 13 11 10 11 12 10 11 13 15 16 15 17 17 17 19 19 19 19 18 19 19 18 18 18 19 19 19 19 18 18 18 17 16 16 16 16 16 16
9 8 10 10 11 14 15 14 14 15 14 15 17 16 16 18 18 19 20 20 20 21 21 20 19 19 19 18 18 18 18 17 18 18 18 18 17 17 17 17 16 16 15 15
13 14 15 18 19 21 19 16 16 18 19 19 20 19 20 20 21 20 20 20 19 19 19 19 18 18 18 18 18 17 16 16 16 17 17 16 16 16 16 16 16 15 15 14
21 22 23 23 22 20 18 19 20 22 22 22 22 22 21 21 20 19 18 18 17 17 17 17 17 16 16 16 16 16 16 15 14 14 14 14 14 14 15 15 16 17 17 18
21 17 14 15 18 19 19 20 21 22 20 20 21 21 21 20 18 18 18 17 17 17 17 17 16 16 16 15 15 14 14 14 14 14 15 16 17 17 18 19 20 20 20 21
15 16 15 15 15 15 15 15 16 17 18 19 19 20 19 19 18 18 17 17 17 17 17 16 15 15 14 14 14 14 14 15 16 17 18 19 20 21 21 22 22 22 21 20
13 12 12 11 10 10 10 10 10 11 12 13 14 15 16 16 17 16 16 16 16 15 15 15 15 15 15 15 15 16 17 18 19 20 20 21 21 21 21 20 20 20 19 19
12 10 9 9 8 8 7 8 8 7 7 8 8 8 9 9 10 10 11 12 13 14 14 15 15 15 15 16 17 18 19 20 20 20 20 20 20 20 20 20 20 19 18 18
6 8 8 9 9 8 8 7 7 7 7 7 7 8 8 9 10 12 13 14 15 16 17 17 17 17 17 18 19 20 20 20 20 20 20 20 20 20 20 20 19 19 19 19
7 8 10 10 11 11 12 12 11 11 12 12 13 14 15 16 16 17 17 18 18 18 18 18 19 19 20 20 21 20 20 20 20 20 20 20 20 20 19 19 19 19 20 20
10 12 13 15 15 15 16 16 16 16 17 18 18 19 19 19 20 20 20 20 20 20 21 21 21 21 21 21 20 20 20 20 20 19 19 18 18 18 18 19 20 20 20 20
15 16 17 18 18 19 19 19 19 20 20 21 22 23 23 23 23 23 23 22 22 21 21 21 20 20 20 19 19 19 18 17 17 17 18 18 19 19 19 19 19 19 20 21
17 18 19 20 21 21 20 20 20 21 22 23 23 23 23 23 23 22 22 21 20 20 19 19 18 18 18 17 17 16 16 16 17 17 18 19 19 19 20 20 20 21 22 22
18 19 19 19 19 20 20 20 20 21 21 21 22 22 22 22 21 21 20 20 19 19 18 17 17 16 16 16 16 16 17 17 18 18 19 20 20 21 22 22 22 22 22 21

GFSNGP_700_spd_093.txt.gz
Wind_Speed
14 9 5 3 0 4 9 11 8 14 22 23 23 28 18 18 22 18 16 19 16 8 17 32 25 23 36 41 42 38 34 28 22 23 22 21 20 20 19 19 18 17 17 18
6 2 2 5 7 10 7 8 14 17 20 15 23 24 12 16 17 7 4 23 27 30 24 23 17 15 24 35 37 32 27 24 27 19 15 13 11 11 14 17 17 18 16 16
3 1 8 8 2 1 2 4 9 13 15 17 21 18 3 12 11 11 3 9 22 27 26 27 27 24 22 24 27 27 26 23 27 32 26 23 24 26 26 26 26 27 27 27
3 1 1 2 3 4 3 4 10 13 14 15 17 17 3 6 3 5 3 5 8 12 21 21 19 18 18 18 24 26 14 9 24 30 29 24 22 26 28 27 27 26 27 29
3 2 6 2 5 1 7 15 16 13 12 15 17 15 8 4 4 12 16 16 16 16 15 22 20 18 16 10 18 8 3 3 8 13 16 18 21 23 24 24 26 27 29 31
4 2 1 2 3 8 15 17 16 13 17 13 5 9 1 5 1 12 10 8 16 18 18 19 15 13 11 9 9 1 4 7 9 10 12 15 18 20 22 24 24 26 26 28
3 1 6 11 10 12 4 7 12 10 15 9 9 8 10 5 5 8 7 7 8 5 5 5 5 6 4 3 1 3 8 9 10 10 11 14 15 16 18 20 21 23 24 26
2 3 3 3 11 17 15 15 13 11 11 8 12 16 15 16 13 12 10 5 1 2 5 7 6 5 5 5 7 9 11 11 13 13 13 14 16 17 19 20 21 22 24 26
3 2 16 23 16 12 6 7 6 7 10 10 10 4 6 5 10 6 6 2 3 6 7 10 10 9 8 8 9 9 10 12 12 12 14 16 16 17 19 19 21 23 24 26
6 5 5 5 8 5 6 6 6 5 6 8 9 8 9 9 6 3 6 8 9 10 9 8 9 7 6 6 7 9 11 13 14 14 15 16 16 17 19 21 22 24 24 25
4 7 6 5 4 7 7 9 11 12 14 17 16 11 11 5 3 2 4 6 6 7 8 9 9 8 9 9 9 8 10 12 13 13 14 15 17 18 19 20 21 22 23 24
4 7 4 2 4 3 2 4 7 8 10 11 12 13 12 6 5 4 6 8 10 10 11 12 12 12 12 12 13 12 12 13 14 15 15 16 16 17 18 19 20 21 22 22
3 2 1 1 1 4 6 6 7 10 11 12 12 12 10 7 8 10 12 13 14 14 14 13 13 14 15 16 16 16 16 15 16 16 17 17 18 18 18 18 18 18 19 19
7 8 8 8 8 9 10 12 10 11 13 15 15 14 15 15 15 15 16 16 17 18 17 17 16 15 16 16 16 17 17 18 18 19 19 18 18 18 18 17 17 17 17 17
11 11 11 12 14 15 16 18 15 14 15 15 17 18 19 18 18 19 19 19 19 20 21 21 19 18 18 18 17 17 17 17 18 18 18 18 17 17 16 16 16 16 16 16
14 14 15 17 20 24 24 23 20 17 18 18 19 21 21 21 22 22 21 21 21 21 21 20 20 20 19 19 19 19 19 18 18 17 16 15 15 14 14 14 14 14 15 15
17 16 20 21 20 19 18 19 19 19 21 22 23 22 21 20 21 21 21 20 20 19 20 19 19 19 19 19 18 17 17 16 16 15 15 15 14 14 14 15 16 16 17 17
16 17 18 17 17 19 21 23 24 24 24 23 22 21 21 20 20 19 19 19 20 20 19 19 19 19 18 18 17 16 16 15 14 14 15 15 16 16 17 18 19 19 19 20
14 15 17 18 20 20 21 23 23 22 21 20 21 20 18 17 16 17 17 16 17 17 17 17 17 17 17 16 16 15 15 15 15 16 16 17 18 19 19 19 19 19 19 19
15 16 18 19 19 19 18 17 16 15 16 16 16 17 16 16 16 15 15 15 15 15 14 14 15 15 15 15 16 16 16 17 17 18 18 19 19 20 20 19 19 19 19 19
14 10 7 6 6 6 6 6 7 8 9 10 10 11 11 12 12 13 13 13 13 13 14 15 15 16 16 17 17 18 18 18 18 19 19 19 19 20 20 19 19 19 19 19
3 3 4 6 7 8 9 9 10 10 10 10 11 11 11 12 13 14 14 15 15 16 17 17 17 18 18 18 18 18 19 19 19 19 19 19 19 19 19 19 19 19 19 19
8 10 11 11 11 12 12 13 13 14 14 14 15 15 16 16 17 17 17 17 18 18 18 18 19 19 19 20 19 19 19 19 19 19 19 19 19 19 19 19 19 19 19 19
12 13 14 15 16 16 16 17 17 18 18 18 19 19 20 20 20 20 20 20 20 21 21 21 21 20 20 19 19 19 19 19 19 18 18 17 17 17 17 18 18 19 19 20
15 16 17 17 17 17 18 18 19 20 21 22 22 22 22 22 22 21 21 21 21 21 20 20 19 19 19 18 18 18 18 17 17 16 16 16 17 17 17 18 18 19 20 20
18 18 18 18 19 19 20 19 20 21 21 21 21 21 21 21 21 20 20 19 18 18 17 17 17 17 17 17 16 16 15 15 15 15 16 16 17 17 18 18 19 20 21 21
17 18 18 18 18 18 18 19 19 20 21 21 21 21 21 21 20 19 19 18 17 16 16 15 15 15 15 15 15 15 15 15 15 16 16 17 18 18 19 19 19 20 20 21

GFSNGP_700_spd_096.txt.gz
Wind_Speed
18 16 13 11 7 4 4 4 5 6 15 16 14 25 20 17 16 19 20 14 11 17 15 15 21 21 21 30 33 40 41 40 34 30 31 30 29 27 26 24 22 20 18 17
13 9 8 5 1 2 4 3 5 7 9 11 16 20 15 10 11 13 10 9 20 17 21 18 20 17 22 23 26 35 41 39 36 31 29 29 29 29 28 26 25 24 23 22
4 3 1 5 6 3 3 3 3 7 10 11 16 16 17 9 12 13 11 3 4 14 23 27 23 20 25 39 24 29 30 34 31 29 27 24 25 24 23 24 26 26 23 25
2 1 3 4 4 6 5 4 6 8 11 11 15 13 15 5 16 6 6 10 12 8 10 22 28 30 29 29 30 28 28 27 28 31 36 37 30 24 22 22 22 26 26 28
2 3 8 6 5 4 6 6 11 12 8 18 11 7 8 8 7 10 12 15 14 20 19 15 14 15 21 23 26 23 23 26 27 27 26 33 31 35 30 27 28 29 33 33
2 2 2 4 4 7 5 3 5 9 7 11 8 6 7 2 7 4 4 8 10 13 17 21 22 20 15 15 13 11 14 18 20 13 17 13 24 26 24 23 24 27 28 28
3 3 4 1 1 7 3 5 17 14 8 4 9 13 13 9 4 8 2 4 3 6 9 9 11 11 14 14 9 9 5 5 5 6 6 11 10 12 14 17 19 20 22 24
3 2 2 2 11 8 7 10 11 8 7 6 6 10 6 6 6 6 4 2 5 6 7 9 9 7 6 4 1 0 3 2 5 4 6 9 14 15 16 18 19 21 22 23
1 0 8 14 7 6 4 6 5 4 7 8 9 7 8 6 6 2 6 11 10 10 10 10 8 7 6 6 5 4 6 7 9 10 12 14 12 14 16 17 19 21 22 23
3 4 5 5 7 5 3 5 3 1 5 7 9 10 10 8 9 9 11 13 12 10 9 8 7 7 6 6 4 4 5 5 7 9 10 12 13 13 15 15 16 18 21 22
3 7 6 5 5 3 4 5 7 8 7 8 9 8 8 10 9 8 8 7 8 8 8 8 8 9 8 8 8 7 7 8 9 9 9 10 11 11 12 13 15 16 17 18
5 3 5 3 3 2 2 4 6 6 7 8 8 8 8 7 8 8 8 8 8 9 10 11 11 11 11 11 11 10 10 11 12 13 13 13 13 13 14 14 15 17 18 19
1 1 1 2 3 4 5 7 9 10 11 10 10 11 8 8 7 9 10 13 12 11 12 12 13 14 15 14 13 12 11 11 12 13 14 15 16 17 17 18 18 18 18 19
8 6 7 7 8 9 10 11 13 14 13 15 15 14 12 12 12 12 14 15 16 15 15 15 14 14 15 15 16 16 15 15 15 15 16 17 17 17 18 18 18 18 18 18
10 12 13 12 11 12 15 18 19 19 18 17 16 16 16 16 16 15 15 16 17 17 18 18 17 16 16 16 17 18 17 18 18 18 18 18 18 18 18 18 18 18 18 18
12 13 14 17 18 19 20 19 17 16 15 17 19 20 20 20 20 19 18 17 16 16 16 15 15 15 16 16 17 17 17 17 18 18 18 18 17 17 17 17 17 17 17 17
18 17 17 17 18 20 19 19 19 19 19 19 20 21 21 20 19 19 18 18 19 19 18 17 17 17 17 17 16 16 16 17 17 17 17 17 17 17 17 17 18 18 19 19
18 17 17 18 17 18 19 21 22 21 20 19 18 18 18 18 18 17 18 18 18 19 19 18 18 18 18 18 18 18 17 17 17 18 18 18 18 18 19 19 20 20 21 22
11 12 14 16 18 19 20 21 20 19 20 20 20 19 18 18 17 16 17 18 18 19 19 19 18 18 17 17 17 17 16 16 17 17 17 18 18 19 20 20 21 21 22 22
12 14 16 16 15 13 12 13 13 14 15 16 17 17 17 16 16 15 15 15 16 16 16 16 17 17 16 16 17 17 18 18 18 18 18 19 19 20 20 20 21 21 22 22
11 8 7 8 9 11 12 13 14 14 15 15 15 15 16 16 16 16 16 16 16 16 16 17 17 18 18 19 19 20 20 20 21 21 21 21 21 21 21 22 22 22 21 22
6 8 9 11 12 12 13 14 14 15 16 17 17 18 19 20 20 20 20 20 20 20 20 20 20 20 21 21 21 21 21 21 22 22 22 22 23 23 23 23 22 22 23 23
9 11 12 14 14 15 16 17 18 19 19 20 20 20 21 21 22 23 23 23 23 23 23 23 22 23 23 23 23 23 24 24 24 24 24 24 23 23 23 23 22 22 22 22
12 13 14 16 17 18 18 18 19 19 19 20 21 21 22 23 23 23 23 23 23 23 23 23 23 23 23 23 23 23 22 22 22 22 21 21 21 20 20 20 20 21 21 21
14 16 16 16 16 16 16 17 17 18 19 20 20 21 21 22 22 22 22 22 22 21 21 21 21 20 20 20 20 20 19 19 19 19 18 18 18 18 18 19 19 20 20 21
17 17 16 17 17 17 17 18 19 20 20 21 21 21 22 22 22 22 22 21 21 21 20 20 19 19 19 19 18 18 18 17 17 17 17 17 18 18 18 18 19 20 20 21
17 18 18 18 18 18 19 19 20 20 21 21 22 21 21 21 20 20 19 19 18 18 18 17 17 17 17 17 17 17 17 17 17 17 17 18 18 18 19 19 20 21 21 22

GFSNGP_700_spd_099.txt.gz
Wind_Speed
9 19 16 11 11 8 5 1 2 7 8 8 16 18 21 20 18 16 16 17 23 15 11 16 16 15 16 19 21 27 33 39 43 42 36 33 31 30 28 25 24 22 21 22
18 17 16 13 7 4 3 2 1 3 9 8 14 18 17 17 15 17 15 14 15 17 11 11 17 18 19 23 25 26 28 32 40 45 41 38 34 33 32 32 30 29 27 27
11 9 14 12 8 6 8 8 6 9 11 8 11 15 14 10 17 12 12 14 14 12 10 16 11 19 20 22 26 28 29 30 36 41 39 36 34 34 33 32 32 31 30 30
5 6 6 10 7 6 8 9 8 6 13 9 13 11 11 8 12 14 17 17 17 18 15 11 16 16 17 24 28 28 23 26 32 33 33 33 34 36 34 33 32 33 32 31
2 10 14 7 8 5 1 9 12 12 9 9 11 11 7 3 6 5 10 11 14 16 20 21 17 13 9 12 18 27 28 37 36 38 37 42 39 38 33 34 34 28 29 27
2 5 4 7 1 7 4 2 9 13 8 5 9 10 10 4 5 0 5 5 8 11 13 15 18 17 14 13 8 23 26 12 25 23 23 22 23 27 26 31 25 25 32 37
3 1 3 1 2 4 4 4 15 12 6 5 7 10 9 9 7 6 3 4 6 10 12 13 12 14 16 16 16 11 2 6 4 9 3 11 16 29 28 30 23 21 25 34
3 1 3 6 7 1 2 5 6 7 7 6 9 10 12 10 6 3 1 7 9 10 11 13 12 10 6 9 13 14 12 6 5 7 7 6 5 4 3 6 6 10 13 15
4 2 6 8 8 5 2 3 2 4 6 8 9 8 9 7 7 5 8 10 12 12 12 10 8 8 7 5 3 4 5 5 5 6 7 4 13 8 6 10 13 13 17 16
5 4 6 7 6 6 3 5 2 4 7 7 9 10 7 8 9 10 11 13 12 10 9 9 8 7 7 8 6 4 3 4 5 4 5 10 12 12 12 16 17 16 14 16
5 7 7 6 4 3 2 4 5 7 6 6 7 8 8 9 12 12 10 10 11 9 8 7 8 10 10 7 7 8 7 5 4 5 5 5 5 6 8 9 11 14 15 17
4 6 4 4 1 1 2 4 5 6 7 8 7 7 8 10 10 12 12 11 11 12 13 12 10 9 10 11 11 10 9 9 8 7 7 8 8 9 9 10 12 13 15 16
0 1 2 3 4 5 6 7 8 10 12 11 10 10 9 9 11 12 13 13 12 13 15 16 16 14 13 12 11 11 11 11 10 10 11 11 11 12 12 13 14 15 16 18
6 6 5 6 8 8 8 10 12 16 16 15 14 14 13 12 13 14 15 15 16 16 15 15 17 18 17 17 15 15 14 14 14 14 14 15 15 16 16 16 17 18 18 19
7 8 10 11 12 12 14 17 18 18 16 16 16 15 16 16 16 17 17 17 18 19 19 19 18 18 18 19 18 18 17 16 17 17 17 17 17 18 18 19 19 20 20 21
12 15 15 15 16 17 18 19 20 19 18 18 18 18 18 19 20 19 19 18 18 19 19 20 19 18 18 18 19 20 20 19 18 18 18 18 19 19 20 20 20 20 21 21
19 18 17 18 18 18 17 18 18 19 20 20 20 19 18 18 18 19 19 19 18 18 18 18 19 19 19 19 20 20 20 20 20 20 20 20 20 20 21 22 22 21 21 22
16 16 17 17 16 16 17 19 20 20 20 20 19 18 16 15 15 17 17 17 18 18 18 18 18 18 18 18 19 19 20 20 20 21 21 21 21 21 21 22 22 23 23 23
11 12 13 15 16 17 18 18 17 15 14 13 13 12 12 13 13 14 15 16 16 16 17 17 17 16 16 16 17 17 17 18 19 19 20 20 21 22 22 23 24 24 24 24
12 14 15 14 11 10 10 11 12 13 14 15 15 16 16 17 17 18 18 18 18 18 18 18 18 18 18 18 18 18 17 18 18 18 19 20 21 21 22 22 23 23 24 24
10 7 7 8 10 12 14 15 16 17 18 19 19 19 20 20 20 21 22 23 21 22 22 21 21 22 21 22 21 21 21 20 20 20 20 21 21 21 22 22 23 23 24 24
7 9 11 13 15 16 18 18 19 20 20 20 21 21 22 22 23 23 23 24 24 24 25 25 25 25 25 25 24 24 24 24 23 23 23 22 22 22 22 23 23 23 23 23
10 12 14 16 18 20 21 22 22 22 22 22 22 23 23 25 24 25 27 24 27 26 27 26 27 27 27 27 27 27 27 26 26 25 25 25 24 24 24 23 23 23 22 22
15 17 19 21 22 22 23 22 22 22 22 22 21 22 23 24 26 24 24 25 25 25 25 25 25 25 26 26 26 26 26 26 26 26 25 25 24 24 24 23 22 22 22 22
17 19 20 21 21 22 21 21 22 23 23 24 24 23 23 24 24 27 26 26 26 26 26 24 24 24 24 24 24 23 23 23 23 23 23 22 22 22 21 21 21 21 21 21
18 19 19 19 20 20 21 22 22 23 24 24 24 24 23 24 24 24 24 24 24 24 24 24 23 23 23 23 22 22 22 21 21 21 21 20 20 20 20 20 20 21 21 21
18 19 20 20 20 21 22 23 23 23 24 24 24 25 23 23 23 22 22 22 21 21 21 21 20 20 20 20 20 20 20 20 20 20 20 20 20 20 20 21 21 22 22 23

GFSNGP_700_spd_102.txt.gz
Wind_Speed
8 8 10 7 11 10 13 10 6 10 11 9 13 16 16 13 14 13 14 15 17 20 20 9 11 17 20 23 22 26 26 28 30 33 37 40 37 32 29 27 25 23 23 22
10 22 18 23 17 16 10 11 14 15 19 9 15 15 14 12 15 12 13 16 18 17 17 19 12 16 19 19 18 20 22 27 31 33 40 42 39 36 34 32 30 28 28 28
14 18 13 23 16 15 20 23 21 21 14 14 15 13 13 11 14 13 17 20 22 24 22 17 13 11 3 21 23 25 23 25 29 32 36 40 40 38 36 33 32 32 32 30
6 4 6 11 16 21 19 18 16 15 11 8 11 9 7 5 7 10 10 14 17 20 23 25 19 12 8 20 14 25 29 31 33 33 31 38 37 37 36 36 36 36 37 35
5 6 17 9 7 16 12 12 11 12 11 10 9 6 5 2 0 4 8 11 13 17 19 19 22 20 15 9 16 5 30 29 31 33 33 34 34 37 37 36 37 37 39 40
3 5 0 5 3 3 3 9 13 11 7 6 7 10 12 5 5 3 6 7 11 14 17 18 14 16 18 14 9 14 5 15 22 29 31 35 40 38 41 41 39 34 34 37
8 5 5 10 1 2 2 5 11 11 8 6 4 7 9 8 5 4 4 7 11 13 14 15 15 13 10 15 17 17 14 11 5 8 16 19 15 10 12 25 29 27 37 36
10 7 4 13 5 2 4 4 5 6 8 11 10 10 9 9 7 5 5 9 11 13 14 14 12 12 11 9 11 17 19 17 17 13 4 5 5 2 8 2 6 8 17 13
6 3 8 10 10 6 2 2 2 4 4 8 9 9 9 8 8 9 10 11 12 10 10 11 10 10 11 11 10 6 6 9 13 16 16 15 11 10 12 11 12 11 7 6
6 5 6 7 5 4 3 5 2 6 7 8 9 9 9 8 10 11 12 13 13 12 9 10 10 9 10 11 10 10 9 8 5 2 5 6 5 7 6 7 11 13 12 11
4 3 5 5 4 4 3 3 5 6 7 8 10 11 11 11 11 11 11 10 11 11 11 10 11 12 11 9 8 7 8 9 8 7 5 3 4 6 7 8 11 12 14 15
2 4 2 1 2 4 5 5 7 7 8 9 11 11 11 11 11 11 12 11 11 12 12 13 12 12 12 13 11 10 9 8 8 9 8 7 7 8 8 9 9 9 9 9
3 4 4 3 4 5 5 5 6 9 12 13 12 13 13 12 12 13 13 13 13 13 13 14 14 13 12 12 13 14 13 12 11 11 11 10 10 10 10 11 12 12 12 13
4 5 4 5 7 8 8 9 10 12 14 14 13 13 13 14 15 15 15 16 17 17 16 16 16 16 15 14 15 15 14 14 14 14 13 14 14 14 14 14 14 14 15 16
4 6 8 10 11 12 14 15 16 15 15 15 15 15 15 15 16 17 18 18 18 18 19 17 17 17 18 17 16 16 16 16 15 16 17 17 17 17 18 18 17 17 17 18
12 15 15 15 15 15 16 16 17 17 17 17 17 18 18 19 19 19 19 20 19 17 18 18 19 18 18 19 19 18 17 17 19 19 18 18 18 18 18 18 17 18 19 20
20 17 14 15 16 16 16 16 16 17 18 19 20 20 20 19 18 19 19 20 20 19 19 18 18 19 19 19 20 20 20 20 19 19 20 21 20 20 20 21 19 20 21 21
13 13 13 14 14 15 16 17 18 19 19 17 16 16 15 16 16 16 17 18 18 18 19 19 18 18 18 19 20 20 21 23 22 22 21 22 22 22 22 22 22 20 21 22
10 11 14 15 17 17 17 14 13 13 14 15 16 16 17 17 17 17 17 16 17 16 17 17 17 17 17 18 19 18 17 19 21 21 23 22 21 22 22 22 23 23 22 22
13 14 15 13 10 10 12 13 15 16 17 18 19 19 20 20 21 21 21 19 20 19 20 20 19 19 19 20 20 19 19 19 19 19 20 21 22 22 23 24 23 22 22 22
10 8 8 10 12 14 16 18 19 21 22 22 23 23 23 23 24 24 26 28 21 24 25 23 21 23 22 23 23 22 22 21 21 20 20 20 21 21 21 22 23 23 24 24
7 9 12 14 16 17 19 20 21 23 23 24 24 25 25 24 24 24 24 25 27 24 27 25 25 25 25 25 24 24 23 23 23 22 22 22 22 22 22 22 22 23 23 23
11 13 15 18 20 21 22 23 23 24 24 24 24 24 24 25 25 25 27 24 25 25 26 24 24 24 25 25 25 25 24 24 24 23 23 22 22 22 22 21 21 21 21 20
15 17 19 20 22 23 23 22 24 23 24 25 23 24 25 25 27 29 26 25 24 26 26 25 25 25 25 24 23 23 23 23 22 22 21 21 21 20 20 19 19 19 18 18
18 20 21 23 25 26 26 26 25 27 28 27 28 26 24 23 24 26 27 28 27 26 27 25 24 24 24 24 23 23 23 22 21 22 21 20 20 19 19 18 17 18 18 18
21 22 23 23 23 24 25 26 26 26 27 27 27 27 30 28 26 25 26 25 24 24 23 24 22 21 22 22 21 21 20 21 20 20 20 20 20 19 19 18 19 19 19 19
21 22 23 25 27 26 25 25 26 26 26 26 24 25 27 27 26 25 24 24 23 22 21 20 20 19 19 19 19 19 19 19 19 19 19 19 19 19 19 19 19 20 20 21

GFSNGP_700_spd_105.txt.gz
Wind_Speed
8 15 8 3 3 2 13 10 4 23 26 17 17 16 15 15 15 12 14 17 19 16 14 15 5 14 16 18 17 19 24 25 22 24 33 34 38 39 34 33 30 26 25 21
22 30 30 36 32 35 29 28 27 26 27 17 15 14 12 15 15 18 21 23 24 26 24 16 15 6 10 18 24 24 24 18 24 27 43 34 38 40 38 36 31 29 30 25
11 10 21 27 25 29 33 32 19 25 16 12 12 13 11 12 13 13 14 18 21 23 25 27 25 19 12 10 13 20 22 21 25 26 32 38 43 37 42 40 33 30 30 29
3 5 5 15 21 21 21 22 23 16 12 12 12 14 10 7 6 10 11 14 17 19 20 21 25 24 19 14 13 9 14 26 25 29 32 35 36 36 37 39 35 28 28 30
2 6 13 6 15 17 12 24 18 14 12 10 9 7 8 5 5 6 10 10 12 14 16 18 17 18 22 18 16 15 12 8 18 30 38 40 35 31 36 35 33 32 31 27
6 3 5 11 7 6 7 17 15 12 9 8 7 7 10 4 3 5 6 8 11 12 14 14 15 15 13 17 18 12 13 10 9 5 11 29 34 40 33 36 38 38 38 41
18 6 4 13 4 5 4 4 11 11 10 8 6 8 9 9 8 7 7 8 10 12 12 12 12 14 14 12 13 16 18 14 11 11 7 5 11 12 33 34 38 41 43 44
7 6 4 15 4 3 8 4 6 7 8 8 8 8 8 7 5 7 9 12 14 13 12 12 11 11 12 13 13 12 13 13 14 15 15 8 9 8 4 7 14 19 18 20
5 6 10 12 13 9 5 6 4 5 6 7 7 9 9 9 11 11 11 11 11 11 11 11 11 12 12 11 11 11 11 10 8 8 11 13 13 13 6 4 7 10 9 6
4 7 7 8 7 5 6 5 3 5 6 6 6 7 6 7 8 9 10 9 9 10 11 11 11 11 11 12 12 11 11 10 9 9 8 6 5 4 6 10 9 8 7 7
4 5 5 6 6 5 3 2 3 3 4 6 7 7 8 9 9 10 10 9 9 8 10 11 11 11 10 10 10 10 12 12 11 10 9 9 8 7 7 8 9 10 11 10
1 5 5 4 3 3 2 1 2 4 6 10 11 11 10 10 11 11 11 11 11 12 12 11 12 12 13 13 11 10 9 9 11 11 10 9 9 8 7 7 6 6 7 8
4 3 2 2 1 2 3 4 4 7 9 11 11 11 11 12 13 14 14 14 14 13 14 15 15 15 15 14 14 14 13 12 11 11 11 11 11 11 11 11 11 11 10 10
2 2 1 2 3 5 6 9 9 11 13 12 12 13 13 13 13 14 15 16 17 17 17 17 18 18 17 17 16 16 16 16 15 15 15 14 13 13 13 12 13 13 13 13
0 3 6 10 10 9 10 13 12 11 13 14 14 13 14 16 17 18 18 17 18 18 18 18 18 18 20 19 18 17 17 17 17 16 16 16 17 16 16 16 16 16 15 15
10 12 13 14 12 12 12 14 14 14 14 15 16 16 16 17 17 18 19 19 18 18 18 18 19 19 19 21 22 21 19 18 19 19 19 19 19 18 16 17 18 19 18 17
17 15 11 9 8 10 11 12 13 15 16 17 16 14 12 12 13 14 15 16 17 18 18 18 19 19 19 19 19 21 22 22 19 19 20 20 19 19 18 18 20 20 21 21
9 9 10 11 11 11 13 14 13 12 11 12 14 16 17 17 17 18 18 17 17 19 19 19 19 19 20 19 18 18 20 20 20 20 20 18 19 21 20 18 18 19 19 19
6 8 11 13 13 11 9 10 11 13 15 16 17 18 19 20 21 22 22 23 23 22 23 22 20 20 22 22 21 20 20 20 21 23 22 21 22 21 20 20 19 19 18 19
10 11 9 7 9 11 13 15 16 18 19 20 21 22 22 23 24 24 24 23 23 25 24 22 24 22 23 24 22 22 21 21 20 22 23 24 24 25 25 23 22 21 21 21
7 7 8 10 12 14 16 17 18 19 19 20 20 21 21 22 22 23 24 22 21 24 25 22 22 25 24 24 23 23 22 22 22 21 21 22 22 23 24 25 25 24 23 23
7 9 12 14 15 17 18 18 19 21 22 22 23 23 24 24 24 23 23 24 22 23 22 22 22 22 23 23 23 22 22 22 22 21 21 22 22 22 22 23 24 25 25 25
11 12 14 16 17 18 19 21 22 23 23 24 24 25 25 25 26 25 24 23 24 25 24 23 22 22 22 22 21 21 21 20 20 20 20 20 20 21 21 21 21 21 22 23
13 15 17 18 20 21 21 21 22 23 24 23 23 23 23 24 25 25 26 26 25 25 25 24 23 23 22 21 19 20 20 19 19 19 18 18 17 18 18 18 18 18 18 19
16 18 20 22 24 25 26 25 26 29 28 27 28 27 25 25 24 23 24 25 24 25 25 24 22 22 21 20 18 18 18 17 17 17 17 17 17 16 17 16 16 17 17 17
18 19 20 23 25 25 26 26 27 29 29 28 28 29 29 29 28 26 25 25 25 23 23 22 21 20 19 19 17 17 16 16 15 15 16 16 16 16 15 15 15 16 16 16
19 22 24 26 27 28 27 27 26 26 27 26 25 25 26 27 28 27 26 25 24 24 23 22 21 20 19 19 19 19 18 18 17 16 16 16 16 16 15 15 15 16 16 17

GFSNGP_700_spd_108.txt.gz
Wind_Speed
8 7 12 12 18 10 14 11 20 21 23 18 15 15 18 20 22 23 23 22 23 24 21 14 10 6 15 21 20 17 22 18 17 27 27 27 20 28 33 39 35 38 32 31
29 36 39 37 39 41 38 29 27 24 22 14 14 14 15 15 15 18 21 22 23 23 23 24 24 16 4 12 21 18 15 19 18 21 24 27 28 35 34 39 41 40 37 32
4 8 7 31 26 32 29 27 21 23 18 13 13 10 10 10 13 15 17 18 19 20 21 22 24 27 23 13 6 11 19 23 26 19 19 24 28 35 38 28 38 38 40 34
5 4 6 10 9 24 26 22 19 17 15 12 11 10 6 6 8 12 13 13 15 16 18 20 20 21 24 27 20 15 10 14 20 22 21 33 32 37 31 36 39 39 39 34
3 9 15 16 13 12 18 23 16 12 10 7 8 7 4 4 7 8 10 13 14 15 16 15 16 16 17 22 25 23 16 12 8 18 22 28 33 32 45 38 36 41 40 35
3 5 4 12 4 6 10 17 15 10 8 8 6 5 10 10 9 8 8 9 11 13 15 15 14 15 15 14 17 20 22 16 13 9 9 10 14 19 36 28 33 42 38 36
14 6 7 11 6 6 4 3 9 10 12 11 8 9 9 8 8 10 11 11 13 13 11 12 12 13 14 14 12 11 14 17 17 12 8 6 6 4 9 18 20 28 19 35
6 5 3 14 4 5 9 7 5 5 7 7 8 9 11 10 10 10 10 11 11 12 12 11 11 12 12 13 13 12 12 12 10 11 14 12 7 7 5 6 7 6 5 19
6 7 7 9 13 10 8 6 4 5 6 7 9 10 11 12 12 11 11 10 10 10 9 10 11 11 11 12 13 13 13 12 12 11 9 8 9 10 11 7 4 4 4 5
4 6 6 7 7 7 6 3 3 5 7 8 9 8 8 8 9 9 10 10 11 11 11 10 10 10 10 10 10 11 12 11 10 11 11 11 10 8 8 8 8 6 6 6
7 5 6 5 5 4 3 3 4 6 7 8 8 8 8 9 10 10 10 11 11 11 12 12 12 11 11 11 12 11 11 12 12 10 9 8 8 9 9 9 9 10 10 11
3 6 5 4 3 2 3 3 3 4 7 9 9 9 9 10 10 10 11 12 13 14 14 15 15 15 14 14 14 14 14 14 14 14 14 12 11 10 9 9 9 9 9 10
4 4 3 2 2 2 3 4 6 8 8 10 11 12 12 13 13 13 14 14 16 17 18 19 19 20 21 19 18 18 18 18 17 16 17 17 16 15 13 13 13 11 10 10
2 2 1 2 5 6 7 6 6 10 12 12 13 14 14 15 15 15 17 17 18 19 20 21 22 22 23 23 23 21 20 19 20 19 18 17 18 18 17 17 16 15 15 15
2 1 4 7 9 11 12 12 11 11 13 13 13 14 16 17 18 18 18 19 19 19 20 20 21 22 23 24 24 24 23 22 22 22 22 21 20 19 19 19 18 16 16 17
7 9 11 10 9 10 12 13 13 13 13 14 15 16 16 15 14 14 14 15 16 17 18 19 19 20 21 22 23 24 24 24 23 23 22 21 20 20 20 20 20 19 18 18
11 10 6 5 7 10 11 13 14 14 13 11 10 11 13 14 16 17 17 19 19 20 21 22 23 23 23 22 23 23 24 25 25 23 22 22 21 21 21 22 22 21 20 20
7 6 6 7 9 11 12 11 8 9 11 13 14 15 15 17 18 19 19 20 22 23 23 23 25 27 27 26 25 25 24 24 25 25 25 23 22 20 20 20 20 20 19 19
4 5 7 8 7 5 6 8 10 12 14 16 17 19 20 21 21 22 22 22 23 23 24 25 24 26 27 27 26 26 25 26 26 26 26 26 24 22 20 20 20 20 20 19
7 6 4 4 6 9 10 12 14 15 17 18 19 20 20 21 21 21 22 24 25 26 25 25 27 27 27 27 27 27 27 26 26 26 26 27 27 26 24 22 21 20 20 20
4 4 6 8 10 12 14 15 16 17 17 17 18 20 21 22 23 24 24 25 27 27 27 26 26 27 27 26 26 26 26 25 25 26 26 26 26 26 26 26 25 23 21 21
4 7 9 12 13 14 15 16 16 17 19 20 22 23 24 24 24 25 25 26 26 26 27 26 26 26 26 26 25 25 25 25 24 24 24 25 26 26 26 26 26 26 25 24
8 9 10 12 13 15 16 17 19 21 22 23 24 25 24 24 25 25 24 24 25 25 25 25 24 24 24 24 24 24 24 24 24 24 24 23 23 24 24 24 24 25 25 25
7 9 12 14 16 18 20 21 22 22 23 24 24 25 25 26 25 26 25 25 26 26 26 25 24 24 23 22 21 22 22 22 22 22 22 22 22 22 22 22 22 23 23 23
10 12 15 17 18 19 21 24 24 24 25 26 26 25 24 24 24 25 25 25 24 24 24 24 24 23 23 22 20 20 19 19 19 19 19 20 20 20 19 20 20 21 21 20
12 14 17 19 21 23 25 26 28 29 29 29 30 31 30 29 28 28 27 26 26 25 25 24 23 23 22 21 21 20 19 18 18 18 19 19 18 18 17 18 18 19 19 19
14 16 18 20 22 25 27 28 28 28 28 27 27 28 28 28 27 28 28 27 27 26 26 25 24 23 22 22 21 21 20 20 19 19 18 19 19 18 18 18 18 18 18 18

GFSNGP_700_spd_111.txt.gz
Wind_Speed
25 22 29 30 14 10 14 13 12 17 17 13 16 16 19 21 23 22 23 24 23 21 22 18 14 9 6 10 17 16 11 15 18 20 20 24 29 34 33 33 36 38 35 40
13 18 37 37 34 40 33 22 20 19 18 14 13 12 13 16 18 20 22 22 23 22 22 21 24 21 12 6 8 18 18 20 23 22 21 19 28 33 29 36 41 39 42 34
7 13 8 25 29 26 26 21 17 19 14 10 8 8 10 12 16 17 18 19 19 18 19 21 21 23 24 19 13 7 9 18 16 20 20 23 23 27 25 32 35 39 31 32
3 4 5 6 7 19 18 17 17 15 12 8 7 8 8 9 11 13 15 17 17 18 19 18 20 20 21 23 24 22 17 14 8 14 22 24 22 22 25 26 43 41 39 33
3 10 11 7 8 15 18 17 10 6 4 5 6 8 7 9 10 11 13 14 15 15 16 17 18 18 19 19 20 22 23 20 17 11 9 13 18 21 24 32 40 35 35 31
4 4 2 8 1 11 13 12 10 5 5 4 5 6 11 12 12 12 12 13 14 14 15 16 14 15 16 16 17 17 18 20 24 21 17 14 8 10 16 26 27 22 33 37
10 5 4 6 6 10 1 3 8 7 6 7 6 9 11 10 10 10 10 11 12 12 12 13 13 13 14 15 14 14 15 16 16 17 19 19 16 13 11 11 14 16 24 28
4 4 2 7 9 3 11 8 5 6 7 7 9 11 11 11 11 11 10 11 10 10 10 11 12 12 12 13 14 14 15 15 14 14 13 12 13 16 14 11 11 10 9 9
4 6 8 11 11 10 9 6 5 5 7 9 9 8 9 9 9 9 10 10 11 11 11 11 11 11 12 12 12 13 13 13 13 12 12 11 11 10 8 7 10 12 9 7
3 7 7 8 10 8 5 3 4 6 7 7 8 8 7 8 8 10 10 11 11 12 12 12 13 13 13 13 14 14 14 14 14 14 13 13 12 11 10 9 9 9 8 9
6 6 7 7 6 5 5 4 5 5 7 9 9 9 9 10 11 11 12 13 13 14 14 15 15 15 15 15 16 16 17 16 16 16 16 15 14 14 13 13 11 9 8 8
3 4 6 6 5 3 4 5 5 6 8 10 12 13 13 13 13 14 15 15 16 16 17 18 18 19 20 20 20 19 18 18 19 20 20 20 19 18 17 16 15 15 14 13
5 4 4 4 4 4 3 4 5 8 11 13 14 15 16 16 16 16 17 18 19 20 21 22 22 22 23 23 24 24 24 23 21 21 21 22 22 22 22 20 19 18 17 16
3 3 4 2 3 4 4 6 9 11 13 14 16 16 16 17 18 19 19 20 20 21 21 21 21 22 22 23 23 24 25 26 25 24 23 23 23 23 23 22 22 21 20 19
3 1 2 5 8 8 7 8 9 10 12 13 14 16 17 17 17 17 17 18 19 20 21 22 23 23 24 24 25 25 25 25 26 26 26 26 25 25 25 24 24 24 23 22
4 7 8 9 7 8 8 10 11 11 12 13 14 13 12 13 15 17 18 19 21 23 25 26 27 28 28 28 28 28 29 29 29 28 27 26 26 26 26 26 26 26 25 24
5 6 6 6 7 9 11 12 13 12 9 9 12 14 16 17 18 20 21 22 24 25 27 28 29 30 31 31 31 31 30 30 31 30 29 28 27 26 25 25 26 26 26 25
6 4 4 6 8 10 10 8 8 10 11 13 15 17 19 20 20 21 23 24 25 26 27 28 30 31 31 31 32 32 32 32 31 32 32 30 29 28 27 26 25 25 25 25
2 4 6 7 6 5 7 10 12 14 16 17 18 19 21 21 22 23 23 24 26 28 29 30 30 31 31 31 31 31 31 31 31 31 31 31 30 30 29 27 26 25 25 25
5 4 2 2 5 8 10 12 14 16 18 19 21 21 22 22 23 24 27 28 28 29 29 29 29 30 31 30 30 30 30 30 30 29 29 29 29 29 29 28 27 25 24 25
1 1 3 6 9 12 14 15 17 18 19 20 21 22 23 24 26 27 29 30 30 30 29 29 29 30 30 30 30 30 29 29 29 30 29 29 28 28 28 28 27 27 25 24
1 3 6 8 10 12 13 15 17 19 20 22 24 25 26 27 28 29 30 30 31 30 29 29 30 30 29 28 28 28 28 28 28 28 28 29 29 28 27 26 26 26 26 25
2 5 7 8 10 13 16 18 20 22 24 26 27 28 28 28 29 29 29 30 30 30 30 31 31 30 28 27 27 27 27 27 27 27 27 27 27 28 28 27 26 25 24 23
4 6 8 10 13 16 19 21 23 25 26 28 28 29 29 29 28 30 30 30 30 30 31 30 30 30 29 28 27 27 26 26 25 25 25 25 26 25 26 26 26 25 25 24
6 8 10 13 16 19 21 23 25 26 28 29 30 30 30 30 30 29 30 30 30 29 29 28 28 27 28 28 28 27 27 26 26 25 25 24 24 23 23 23 24 24 24 23
8 10 12 15 18 21 24 26 28 29 31 31 31 32 31 31 31 30 30 31 31 31 29 29 28 27 27 26 26 26 27 27 26 25 25 25 25 24 23 23 23 23 23 22
10 13 15 18 21 24 26 28 31 32 32 32 31 32 33 33 32 31 31 30 31 30 30 29 29 28 27 27 27 26 25 25 25 25 24 24 24 25 24 23 23 22 23 22

GFSNGP_700_spd_114.txt.gz
Wind_Speed
16 20 22 25 24 20 17 13 11 14 16 11 13 15 19 19 22 23 26 28 28 26 26 22 13 8 4 3 5 12 12 16 17 20 19 27 19 25 25 29 31 34 37 39
9 9 15 33 29 25 25 21 22 18 15 11 12 12 13 18 21 23 25 25 24 24 22 22 25 24 20 14 9 1 12 15 16 16 22 17 20 25 24 28 30 33 35 38
3 3 8 9 24 23 25 20 17 18 15 12 12 12 15 17 18 20 22 22 21 21 21 21 20 21 22 25 25 21 17 10 9 15 16 23 24 22 27 25 31 36 31 40
5 1 4 5 8 15 19 18 17 14 13 12 11 13 13 12 14 16 17 18 19 19 20 22 22 20 20 20 21 23 23 20 14 9 6 12 23 22 22 23 22 27 27 29
2 5 6 3 4 8 14 13 8 8 8 7 9 10 10 13 14 15 17 18 17 17 18 19 17 18 19 19 18 17 17 19 22 22 17 12 7 11 15 19 19 23 22 17
6 2 2 1 6 7 9 10 9 8 7 7 7 7 9 10 12 12 13 14 15 15 16 16 15 15 16 16 16 14 16 18 19 19 20 20 17 14 11 8 9 12 22 23
9 4 3 3 6 5 2 2 6 7 7 8 7 9 11 11 11 10 11 12 12 12 12 12 13 14 14 14 13 14 15 16 16 16 16 15 16 18 17 15 15 12 10 10
4 4 2 1 9 2 8 7 4 5 6 7 9 11 11 11 11 12 12 13 13 13 12 13 14 14 14 14 15 15 16 16 15 14 14 14 14 13 11 11 12 14 13 12
2 4 8 8 5 11 8 5 5 6 6 7 7 7 8 9 10 10 11 11 11 11 11 12 12 13 15 15 16 16 16 16 16 16 16 15 15 14 13 13 13 10 9 7
3 7 7 10 10 9 6 4 5 5 5 6 8 8 9 9 10 11 12 12 13 13 15 15 15 15 16 17 17 18 18 18 18 18 17 16 16 15 15 15 14 13 13 12
5 7 7 7 7 7 5 3 3 3 5 6 8 9 10 11 12 13 14 15 16 16 16 17 17 18 18 18 19 19 20 20 20 20 20 20 20 19 18 17 17 16 16 15
3 7 5 6 5 5 3 1 1 3 6 9 11 12 13 13 14 14 15 16 17 18 19 19 20 20 21 21 21 21 21 21 21 22 22 22 22 22 21 21 20 19 19 19
4 6 6 5 3 1 2 4 6 8 9 11 12 13 14 15 16 16 17 17 17 17 18 18 18 19 19 20 21 21 22 23 23 23 23 23 23 23 23 23 23 22 21 21
4 5 5 4 0 3 4 6 8 9 10 11 12 13 14 15 16 16 16 16 17 18 20 21 21 23 24 24 25 25 26 26 27 27 27 27 26 26 25 24 24 25 25 24
4 4 2 3 5 4 4 4 6 8 10 12 13 13 13 13 14 16 18 20 21 23 24 25 26 27 28 28 28 29 30 31 31 31 30 30 30 29 28 27 26 26 26 26
4 5 6 7 6 5 6 8 10 11 12 11 10 11 13 16 18 20 21 23 25 26 27 28 28 29 29 30 31 32 33 33 33 33 33 33 32 31 31 30 29 28 27 27
4 5 5 5 4 6 8 10 10 9 10 12 14 16 18 19 21 22 23 25 26 27 28 29 30 31 32 34 35 36 36 36 35 35 34 34 33 33 32 31 31 30 28 27
4 2 2 3 5 7 6 6 9 11 13 15 17 18 20 21 22 23 25 27 28 29 30 32 33 34 34 34 35 35 35 34 34 33 33 33 33 32 31 30 29 28 28 28
1 2 4 4 3 4 7 9 12 14 15 16 18 19 21 23 24 25 27 28 29 31 32 33 33 33 33 33 33 33 33 32 32 32 32 31 30 30 29 29 28 27 26 26
3 2 1 1 4 7 9 12 14 16 17 18 20 21 22 24 26 28 29 30 31 32 32 32 32 32 32 32 33 33 32 32 32 32 31 31 30 29 28 28 27 27 26 25
2 3 0 2 5 8 10 12 14 16 18 20 22 24 26 28 29 30 31 31 32 33 33 33 32 31 30 31 31 31 31 31 30 30 30 29 29 28 27 26 26 27 26 25
4 3 2 4 6 8 11 14 17 20 21 23 25 27 29 30 31 31 33 33 33 33 34 34 33 32 31 31 31 29 28 28 28 27 27 27 27 28 27 27 25 24 25 25
4 3 3 6 8 10 13 16 19 21 23 26 29 31 31 32 33 34 32 33 33 33 33 33 33 33 32 32 32 31 29 28 27 26 26 25 25 26 26 25 25 23 22 23
4 4 6 7 10 13 16 18 22 24 27 29 32 34 34 33 30 34 35 34 34 34 33 33 33 33 32 32 32 31 30 29 28 26 25 25 25 25 25 25 24 23 22 22
6 6 8 10 12 15 18 21 24 27 29 32 34 35 35 35 35 34 34 34 34 34 33 32 32 31 30 30 30 30 29 29 29 29 27 26 26 25 25 24 24 24 23 22
8 9 10 12 15 18 21 24 27 30 32 33 34 36 35 35 35 35 35 34 33 33 33 32 32 32 31 31 30 29 29 29 29 29 29 27 26 26 25 25 23 23 23 22
10 11 13 15 18 21 24 27 29 32 35 36 35 36 35 35 35 35 34 33 33 33 33 33 33 33 33 32 32 31 30 29 29 29 30 29 28 27 26 25 24 23 23 22

GFSNGP_700_spd_117.txt.gz
Wind_Speed
17 16 15 15 23 13 12 12 8 14 13 9 12 14 19 20 21 22 22 22 28 28 24 22 19 12 4 6 1 7 18 16 14 16 20 25 27 32 26 28 32 34 37 41
15 3 3 22 15 18 22 22 22 16 13 10 11 13 13 17 21 23 23 24 23 23 24 26 27 25 19 16 12 10 3 9 12 14 13 16 21 20 28 26 24 35 35 38
4 4 1 4 16 16 16 16 16 14 11 10 11 11 14 18 20 20 21 21 21 23 24 23 22 23 22 23 23 20 17 13 6 11 18 21 19 21 23 23 28 25 32 34
6 7 2 3 3 9 13 13 11 10 10 10 11 13 13 14 17 19 19 19 20 22 23 23 22 21 22 20 18 17 17 18 16 11 6 3 9 15 20 24 25 27 30 29
4 3 8 5 6 5 6 9 9 9 9 8 8 9 10 12 15 15 16 17 18 19 20 20 19 20 20 18 17 16 15 15 15 16 17 15 11 6 9 14 15 18 20 23
3 3 4 6 8 10 6 5 7 8 7 7 7 6 8 10 12 13 14 15 16 17 18 16 15 16 16 15 14 12 12 13 14 14 13 12 12 14 13 10 8 7 8 13
2 1 2 3 11 8 2 3 5 6 6 6 6 7 9 11 12 13 14 15 15 14 13 14 15 15 13 14 12 12 14 14 14 14 14 14 13 12 10 10 11 11 11 10
1 1 2 1 13 7 8 8 5 7 7 6 6 8 9 9 11 11 11 12 12 13 12 13 14 14 13 13 13 12 12 13 13 13 14 15 15 15 15 14 13 12 11 11
2 3 3 6 8 14 10 7 6 7 7 7 7 8 8 9 11 11 12 12 12 13 13 14 14 15 16 16 16 16 15 15 15 15 14 14 14 14 14 15 15 15 15 14
2 3 7 8 10 10 8 7 6 6 6 7 8 8 9 10 11 12 12 13 14 15 15 15 16 16 16 16 16 16 17 17 18 18 18 18 18 18 17 16 16 15 15 15
4 5 6 6 6 6 6 5 4 4 4 5 7 9 10 11 12 13 13 14 15 15 15 16 16 16 16 16 17 17 18 18 19 18 18 18 19 19 20 20 20 19 18 18
4 6 4 6 6 4 2 2 2 3 5 6 7 9 10 10 11 11 12 13 13 14 14 15 15 17 18 19 20 21 22 22 22 22 22 23 22 21 21 21 20 21 21 21
4 6 7 6 5 2 0 1 3 6 7 8 8 9 9 10 11 11 11 12 13 15 17 18 19 20 21 21 22 23 24 25 26 26 26 26 27 26 27 25 24 23 23 23
5 6 7 5 2 2 4 5 6 7 7 8 9 10 11 10 10 12 13 15 16 18 19 20 20 22 23 24 25 26 26 27 28 28 28 29 29 29 29 29 28 28 27 26
4 5 5 2 3 4 4 3 5 7 8 9 9 9 11 13 15 17 19 20 21 21 22 24 25 26 27 28 28 29 30 31 31 32 32 32 32 31 31 30 30 29 29 28
7 6 6 6 5 4 3 4 6 6 5 6 9 11 13 15 17 19 20 21 22 23 24 25 26 27 28 30 31 33 34 34 35 35 35 34 34 33 33 32 31 31 30 29
6 7 7 6 4 3 3 3 3 5 7 10 12 14 16 17 19 20 21 23 24 25 27 28 29 29 31 32 32 33 34 34 34 34 34 34 33 32 31 30 30 29 28 28
7 6 5 3 2 1 1 3 6 8 10 12 13 15 18 21 23 24 25 26 28 28 29 30 31 32 33 34 34 34 34 34 33 33 33 33 33 32 31 30 29 27 26 25
5 5 3 3 3 2 2 5 7 9 11 14 16 18 19 21 23 25 27 28 30 31 32 33 33 33 33 33 33 33 33 33 33 33 32 32 32 31 30 29 28 27 25 24
5 4 4 5 2 1 3 6 8 11 13 15 17 20 21 23 25 27 29 30 31 32 32 33 34 34 33 32 32 31 31 30 30 30 30 30 29 29 29 28 27 26 25 24
5 6 5 3 1 1 4 6 9 11 14 16 18 20 23 26 29 30 32 32 33 33 34 34 33 33 32 31 30 30 30 29 29 28 28 28 28 27 26 26 25 25 24 24
7 6 5 3 1 3 6 8 11 13 16 18 21 24 28 31 33 33 36 36 35 35 35 35 34 33 32 31 30 30 30 29 28 27 27 26 26 26 25 25 24 23 22 22
7 5 4 4 4 6 8 11 13 16 19 23 26 28 31 33 36 36 34 35 36 35 35 34 33 32 31 31 30 29 29 28 27 26 25 25 24 24 24 24 23 22 21 21
7 7 6 6 7 8 11 14 17 20 23 27 29 32 34 34 35 38 38 37 37 36 34 34 33 32 32 31 31 31 30 30 29 28 27 26 25 24 23 23 23 22 22 21
8 8 8 9 10 11 14 16 19 22 26 29 33 35 37 38 38 37 37 37 36 35 34 34 34 34 34 33 32 32 32 31 31 30 29 28 27 25 24 23 22 22 21 21
10 11 11 12 13 14 17 19 22 25 28 31 35 37 38 38 38 38 38 37 37 36 36 36 35 35 35 35 35 34 34 33 33 32 31 30 29 28 27 25 24 22 21 20
13 13 13 14 15 17 19 22 25 28 31 34 36 38 37 38 38 37 37 37 37 37 37 37 37 37 37 37 37 37 36 36 35 34 33 32 31 29 28 27 25 24 22 21

GFSNGP_700_spd_120.txt.gz
Wind_Speed
10 12 5 11 10 16 7 6 3 10 7 7 10 13 15 16 18 18 21 21 24 26 25 24 20 15 8 5 6 15 18 18 19 22 24 28 30 31 33 32 34 36 37 39
15 11 8 8 4 9 14 17 17 10 9 8 9 11 12 14 18 21 22 23 21 21 23 24 29 28 24 18 9 8 3 3 11 18 21 19 21 22 22 23 27 27 29 31
4 6 7 4 5 8 9 10 6 3 7 8 9 11 12 16 17 17 19 20 20 23 23 23 23 23 20 23 22 18 16 13 9 3 12 19 17 14 19 20 23 26 27 31
6 6 6 6 8 7 7 7 7 6 4 6 7 11 12 14 15 15 16 16 17 19 21 22 22 21 23 21 17 15 14 14 15 13 10 5 6 12 17 19 19 22 27 32
5 4 5 7 10 9 7 2 4 5 5 4 6 7 10 10 12 13 14 15 15 17 17 18 17 17 18 16 15 13 12 12 12 12 12 12 12 11 9 7 8 12 15 19
5 7 6 8 12 11 7 3 4 4 5 4 4 6 7 10 12 13 14 14 14 15 16 16 15 16 16 15 14 12 12 13 13 13 12 11 10 9 9 9 10 11 11 10
9 9 3 10 14 14 5 6 4 4 5 6 6 5 6 8 10 10 11 12 13 13 13 13 14 13 13 13 11 11 11 11 11 11 12 12 13 13 12 12 13 13 13 13
5 7 4 8 15 12 7 11 7 6 6 6 4 4 5 7 8 9 11 11 12 13 13 13 14 14 14 13 13 13 12 12 12 12 13 13 14 15 15 15 15 15 16 15
6 6 6 9 16 13 15 11 9 8 7 6 5 6 6 6 7 7 8 8 9 10 10 11 12 12 13 13 13 14 15 15 15 14 14 14 14 14 15 16 16 17 17 17
4 4 8 12 15 15 13 10 9 7 5 5 5 4 4 4 5 6 7 8 9 10 12 12 12 12 12 13 13 14 14 14 15 16 17 18 18 17 17 17 18 19 20 20
6 8 9 10 10 10 10 9 8 5 3 2 2 3 4 4 5 6 8 9 10 10 10 11 12 14 15 15 16 17 18 18 19 19 19 19 19 20 20 20 20 20 20 20
6 7 8 10 10 9 7 6 5 3 1 0 1 2 3 5 6 7 8 8 9 10 12 14 16 17 18 19 20 21 22 22 22 22 23 24 25 26 24 24 24 24 25 25
5 7 8 9 9 8 6 4 1 1 1 2 3 4 5 6 7 7 8 11 13 15 16 18 19 20 20 21 22 22 23 24 25 26 27 27 27 28 29 30 30 29 28 28
5 7 8 8 6 3 2 1 0 1 2 3 5 5 6 8 9 11 13 15 16 18 19 20 21 22 23 24 25 26 26 27 28 28 29 29 30 31 32 32 32 32 32 31
4 7 8 6 3 2 2 1 1 2 4 3 4 6 8 10 11 13 15 17 19 20 22 23 25 26 27 27 28 29 30 31 32 33 33 33 33 33 33 33 33 33 33 33
8 7 7 6 4 3 2 2 3 2 2 4 5 7 9 10 12 15 17 18 20 22 24 25 27 28 29 30 31 32 33 33 34 34 35 34 34 34 34 33 33 33 32 31
8 7 6 6 5 4 3 2 2 1 2 4 6 8 10 12 14 16 19 21 23 25 27 28 30 31 32 33 34 35 36 36 36 36 37 36 36 35 34 34 33 32 31 29
6 7 6 6 6 5 5 4 2 1 3 5 7 9 12 14 17 20 23 25 27 28 30 32 32 33 34 34 35 35 35 35 35 35 35 36 35 35 34 33 33 32 30 29
8 8 8 7 7 7 5 3 0 1 3 6 9 11 14 17 20 23 25 28 30 32 32 33 34 35 35 34 34 34 34 33 32 32 32 32 32 32 32 32 31 31 29 28
8 8 8 8 8 6 3 2 1 3 6 8 11 14 17 20 24 27 29 32 32 34 35 36 36 37 36 36 35 34 33 32 32 32 32 31 31 30 30 30 29 29 28 28
9 8 9 9 7 5 4 3 4 6 8 12 15 18 21 24 27 30 32 34 37 36 37 37 37 38 37 35 34 34 33 32 31 31 30 29 29 28 28 28 28 27 26 26
8 10 10 9 7 6 5 5 7 9 12 15 18 22 24 27 30 34 36 36 37 38 38 38 37 36 34 34 33 32 31 31 30 30 29 29 28 27 27 27 27 26 26 25
10 10 9 8 8 7 7 7 10 12 15 18 21 23 27 31 34 35 36 39 38 38 38 37 36 35 34 34 33 33 32 32 31 30 30 30 29 28 27 26 25 25 25 25
11 10 9 9 8 8 9 11 13 16 18 21 24 26 29 33 37 39 38 38 38 38 37 37 37 37 36 35 35 35 35 35 34 34 33 32 31 30 29 28 26 25 25 24
11 10 10 10 10 11 12 14 17 19 22 25 27 29 32 35 36 37 38 38 38 38 37 37 37 37 37 37 37 37 37 37 37 36 36 35 34 33 32 30 29 26 25 24
11 11 12 12 12 14 16 17 19 21 24 28 30 32 35 37 38 38 38 38 38 38 38 37 38 38 38 39 39 39 39 38 38 38 38 37 36 35 34 33 31 29 27 24
12 13 14 14 16 17 18 20 22 23 26 28 31 34 36 37 37 38 38 38 37 37 37 38 39 40 40 40 40 39 39 38 38 37 37 37 36 35 34 33 32 31 28 26

GFSNGP_700_spd_126.txt.gz
Wind_Speed
27 20 10 8 11 8 8 9 9 5 8 6 5 6 8 9 12 15 17 21 27 29 29 32 33 33 32 31 26 23 17 16 11 5 11 16 13 8 9 15 18 22 25 27
26 18 19 17 20 15 8 6 5 5 5 6 4 4 6 7 8 10 13 17 20 22 25 25 30 32 32 35 34 32 30 28 25 20 13 15 12 10 10 11 12 15 15 21
15 10 11 15 25 18 15 5 3 8 13 8 2 2 2 5 7 8 10 13 15 18 22 23 22 23 27 32 30 28 28 28 27 27 24 22 17 9 3 2 2 9 13 14
12 9 5 7 7 9 9 7 9 12 9 8 4 2 2 3 5 7 9 12 14 16 19 20 22 23 25 24 24 24 24 23 22 21 20 19 16 16 16 13 7 3 6 13
8 14 9 10 9 10 11 11 11 11 10 9 7 5 1 3 3 4 6 9 12 14 16 18 18 20 21 21 22 21 19 19 19 20 19 17 15 15 14 13 12 9 7 6
10 13 7 8 10 18 16 12 16 14 11 10 8 6 2 0 1 3 5 8 11 12 14 14 16 18 18 18 17 15 16 17 18 17 15 15 14 14 14 13 13 12 12 11
20 14 7 12 12 11 8 5 13 13 10 9 9 6 6 2 1 1 4 7 10 11 13 15 17 18 18 19 18 19 19 18 18 18 19 19 18 17 16 15 14 14 14 14
17 17 15 11 8 9 11 11 12 16 12 7 9 8 5 4 3 1 2 4 6 8 10 11 12 13 14 16 18 19 20 21 21 21 20 20 21 22 21 21 21 20 20 20
10 9 7 9 10 14 19 16 15 15 13 11 9 7 6 5 3 2 2 4 5 6 7 9 11 12 14 15 16 18 20 21 21 22 23 23 23 22 23 23 23 24 24 24
16 18 19 16 15 17 18 20 16 15 13 10 8 8 6 4 2 2 4 5 7 9 11 13 14 16 18 20 20 21 21 21 22 22 23 23 25 25 25 26 26 26 26 26
14 15 14 15 12 12 13 15 15 14 12 11 8 6 4 2 2 2 4 5 7 9 11 14 16 18 20 21 22 23 24 25 25 26 27 29 29 29 29 30 31 31 32 32
9 8 9 8 9 9 10 11 12 11 10 8 5 4 3 2 2 2 3 6 8 11 13 15 17 18 19 20 21 23 24 26 27 28 29 30 31 33 34 34 33 34 34 35
9 8 9 7 8 9 9 10 10 9 6 4 6 5 3 1 0 3 5 8 11 13 15 17 19 20 21 23 24 26 28 29 31 32 33 34 35 36 37 38 41 42 40 36
8 8 8 8 8 9 8 8 8 4 6 6 5 3 3 1 2 5 7 9 11 14 16 17 19 21 23 26 27 29 31 32 33 34 36 37 38 39 41 42 42 41 43 45
9 8 8 8 10 10 7 5 6 6 6 5 5 3 1 2 3 5 7 9 12 14 16 18 21 24 26 28 30 32 33 34 36 38 40 41 42 42 42 43 42 42 42 42
8 8 9 10 10 9 5 6 6 5 5 5 3 2 2 1 3 5 8 11 13 16 19 23 25 27 29 30 32 33 34 36 37 39 40 41 41 40 39 38 38 38 38 39
10 8 8 9 9 9 8 8 7 7 6 5 4 3 0 2 4 7 10 14 17 21 24 26 28 30 31 33 34 36 37 38 40 40 40 39 38 37 37 37 36 35 35 36
12 11 10 10 10 10 10 8 8 7 6 5 4 2 2 5 8 11 14 18 21 24 27 29 32 33 33 34 37 38 39 38 38 38 37 35 35 34 34 34 34 34 33 33
9 9 9 9 10 11 9 10 9 8 7 5 3 3 6 8 11 15 19 22 25 28 30 32 34 36 38 38 37 38 38 37 35 34 34 34 34 34 34 33 33 33 32 32
9 9 9 10 9 10 10 10 9 7 5 4 5 7 9 12 15 19 23 25 27 30 34 36 38 39 40 41 39 37 36 35 35 35 35 35 35 35 35 34 34 33 33 32
9 8 7 9 9 11 11 10 8 7 7 7 9 11 13 16 19 22 25 30 30 32 37 39 41 39 40 40 39 37 36 36 37 38 38 38 38 37 37 36 35 34 33 32
9 9 9 9 11 12 11 10 9 9 9 10 12 14 17 19 22 25 27 30 34 36 39 41 42 40 37 36 36 36 37 38 39 39 39 39 39 38 37 37 37 37 35 33
10 10 10 11 12 12 11 11 11 12 12 14 16 18 21 23 26 29 32 34 35 37 40 41 40 38 37 36 36 37 38 39 40 39 39 39 39 37 36 37 36 32 32 36
10 10 11 12 13 12 12 12 13 14 16 18 19 21 23 26 29 31 32 35 38 39 40 41 39 36 36 37 38 38 39 39 39 39 39 40 39 38 37 37 35 32 29 28
11 11 13 14 13 13 14 15 16 17 19 21 21 23 25 27 28 31 33 36 39 39 38 38 37 37 37 38 38 38 38 38 38 39 39 37 37 36 36 36 36 35 33 28
11 12 14 15 15 16 16 17 20 20 21 23 25 26 27 28 30 32 36 38 39 38 37 36 37 37 38 39 40 40 39 39 38 38 37 36 35 35 35 34 34 32 31 30
12 13 15 16 17 17 18 19 21 21 22 24 28 27 28 29 32 34 37 37 37 36 35 36 36 37 38 38 39 38 38 38 38 38 37 36 35 34 34 32 32 31 30 30

GFSNGP_700_spd_132.txt.gz
Wind_Speed
26 28 32 33 35 30 26 27 14 21 26 22 21 21 15 10 8 8 10 13 14 14 15 16 18 22 24 27 29 34 35 36 34 32 35 38 28 21 19 14 11 5 10 15
40 37 32 31 26 27 30 25 25 23 23 18 14 14 13 8 6 8 10 11 12 12 13 13 15 16 18 23 25 27 29 32 36 40 38 37 34 28 20 19 14 10 8 4
27 22 17 20 22 22 26 25 23 24 19 16 14 16 12 9 7 7 8 8 9 10 11 13 14 17 18 20 22 23 25 26 28 30 28 32 33 29 26 23 15 8 9 6
18 15 5 17 9 9 10 14 19 22 19 18 17 14 11 10 8 6 6 8 8 8 10 12 14 15 18 18 19 20 22 21 23 25 24 25 25 26 27 28 27 24 20 18
13 12 14 23 27 17 10 12 13 17 17 14 13 15 13 12 10 7 6 7 8 6 7 10 11 13 16 16 17 18 19 20 21 22 21 23 24 25 26 23 21 19 17 16
7 4 3 5 8 10 9 14 12 16 20 16 17 17 15 14 11 9 5 5 6 6 5 7 8 11 13 14 15 15 17 20 21 20 20 21 22 21 21 19 16 15 13 11
24 11 15 16 15 11 9 12 12 11 14 17 16 17 17 15 13 10 4 4 4 3 4 5 7 9 11 13 14 15 16 17 18 19 21 23 23 21 19 18 18 17 16 15
25 12 14 22 18 17 13 13 15 14 15 16 15 15 18 17 13 8 4 4 3 2 2 5 8 10 12 12 12 14 15 16 17 18 19 19 20 21 21 20 19 19 18 17
16 13 15 10 7 7 11 17 16 17 17 17 17 16 18 17 11 6 5 4 3 1 2 5 7 8 10 12 14 15 18 19 20 21 20 20 20 21 21 23 23 21 20 21
19 20 19 15 18 15 14 15 16 16 18 17 19 21 21 17 10 7 4 4 3 1 3 5 7 8 9 11 14 17 18 19 19 20 21 21 22 22 21 20 21 22 24 24
22 22 19 19 15 13 13 14 14 14 14 15 18 20 19 12 7 5 4 5 3 1 3 4 6 9 10 12 14 16 18 19 22 24 25 25 25 26 26 26 27 28 29 31
19 14 14 15 12 11 12 11 9 8 8 10 13 13 10 8 7 5 6 5 3 1 2 4 7 9 12 15 18 21 23 24 23 24 25 28 30 33 34 35 36 35 34 34
17 16 14 12 12 12 11 9 7 4 3 5 8 9 9 9 8 7 6 4 2 1 3 5 8 11 14 17 20 23 25 28 31 34 35 35 36 36 35 37 38 38 38 37
19 16 14 13 11 11 10 8 6 5 6 8 9 9 6 5 8 7 5 4 3 1 4 7 10 14 18 21 24 25 28 29 30 31 33 35 37 37 37 36 36 37 37 37
17 17 14 12 11 10 9 7 6 7 10 10 8 6 8 10 7 5 5 3 1 2 6 10 14 17 20 22 24 26 28 31 33 34 35 35 36 36 36 36 36 37 36 37
16 16 14 11 10 9 8 8 10 9 8 6 7 10 9 8 7 6 4 3 3 6 9 12 16 20 22 25 28 31 32 33 35 36 36 36 37 37 37 38 39 40 41 41
14 13 11 10 9 8 9 10 9 9 8 10 11 9 8 8 7 7 5 5 7 9 13 16 19 21 24 28 30 32 33 35 35 36 36 35 35 36 36 37 37 37 38 39
15 14 13 12 9 10 9 8 9 9 10 11 10 10 10 9 8 7 6 8 11 13 16 19 22 26 28 29 31 33 35 36 35 35 35 34 34 35 36 36 37 37 38 38
13 12 12 11 10 10 10 10 11 11 12 12 11 11 11 10 9 8 9 11 15 18 20 22 25 27 29 32 33 34 35 34 34 34 35 35 34 35 36 37 37 38 38 39
11 11 10 9 9 10 11 12 12 12 12 12 12 12 11 10 10 11 12 15 18 21 23 25 28 30 32 34 35 36 36 36 36 36 35 35 36 37 38 37 38 38 39 39
8 8 8 9 11 11 11 12 13 13 13 13 13 12 12 12 13 14 15 18 20 23 25 27 30 33 35 36 36 37 37 36 36 36 37 37 38 38 39 39 38 38 38 38
5 5 7 8 9 10 11 12 13 12 13 13 13 13 14 15 16 18 20 22 23 25 27 29 32 34 35 36 37 37 36 37 37 38 38 39 40 39 38 38 39 39 39 38
5 6 8 9 10 11 12 13 13 13 14 14 15 16 16 16 19 21 23 24 26 27 29 32 34 35 36 36 36 36 36 36 37 38 39 39 39 38 38 39 40 40 39 37
7 9 10 10 11 11 12 13 14 14 15 16 17 17 18 20 21 23 24 26 27 29 32 33 35 35 36 36 36 35 35 36 37 38 39 38 38 39 38 38 38 38 37 37
7 9 9 11 12 13 13 13 14 14 15 16 17 19 20 21 21 23 25 27 29 32 33 34 35 36 35 35 35 35 35 37 37 38 38 38 38 38 38 38 38 37 36 36
7 8 9 11 12 13 13 14 14 15 15 16 17 18 19 20 22 23 25 28 30 31 34 35 35 35 34 34 34 34 36 36 37 37 37 38 37 37 37 37 37 35 35 34
8 8 9 9 10 11 12 13 13 14 15 17 18 18 20 21 23 25 28 29 30 33 34 34 34 34 33 33 33 34 35 35 36 36 37 37 36 36 36 36 35 34 33 33

GFSNGP_700_spd_135.txt.gz
Wind_Speed
27 27 29 31 34 37 32 34 22 33 29 30 26 23 16 12 15 14 13 12 12 13 14 16 17 19 23 25 26 30 31 34 37 41 37 34 33 25 29 30 26 29 19 13
32 31 35 43 37 27 29 32 34 35 33 27 22 15 12 13 14 14 14 12 10 11 12 13 13 15 19 22 26 26 28 31 33 35 36 42 40 35 34 33 27 21 12 11
29 25 23 23 23 20 20 24 26 28 24 23 19 16 14 13 14 15 13 11 10 9 11 10 10 11 15 19 22 24 26 27 29 31 31 33 33 28 35 34 33 30 30 26
23 22 12 20 18 17 15 11 10 17 23 19 15 13 12 13 14 13 11 11 10 9 8 8 8 10 12 16 18 19 21 23 24 25 26 27 25 27 29 29 27 27 28 29
15 19 24 25 22 21 21 20 14 15 14 14 15 14 14 14 14 13 11 12 10 8 6 5 7 8 10 12 15 16 15 17 18 19 20 20 20 22 22 22 22 23 25 24
20 9 3 4 5 5 6 16 9 10 13 15 15 15 14 16 17 15 14 13 10 8 6 4 6 8 9 10 12 13 13 15 17 18 19 20 22 22 23 23 24 25 24 23
23 16 17 23 18 19 10 11 10 7 10 13 14 14 14 15 16 16 15 12 10 7 6 4 6 8 9 11 12 12 14 16 17 19 20 22 23 24 24 25 26 26 26 25
16 13 13 22 22 22 19 15 12 11 15 17 18 19 14 15 15 16 14 11 9 6 6 4 6 7 8 9 9 10 12 15 16 17 18 19 21 22 23 24 25 24 24 24
16 14 19 15 13 11 11 11 19 21 18 19 19 19 15 14 13 13 14 12 7 5 6 6 6 7 7 6 7 9 12 14 15 17 18 19 21 21 21 22 22 22 22 23
28 30 29 24 19 16 21 18 20 21 19 18 18 18 17 15 14 13 13 12 7 5 7 7 6 5 5 6 7 9 11 14 16 19 21 22 23 23 23 23 24 24 24 24
25 23 20 20 20 19 17 17 18 18 15 13 13 14 14 12 12 12 12 9 4 5 7 6 4 3 5 8 10 13 15 17 18 20 22 23 24 24 25 25 25 27 27 27
18 15 16 15 15 14 14 14 14 12 9 8 7 6 6 10 12 11 11 8 5 7 6 4 3 4 7 9 12 15 17 19 20 22 23 25 27 29 29 30 29 28 29 29
20 19 19 18 15 14 13 13 11 8 6 4 3 6 9 12 13 11 7 6 6 5 4 3 4 7 9 12 14 16 18 20 22 25 27 29 30 31 31 33 35 35 35 36
23 22 21 18 15 14 13 12 9 7 6 6 8 10 11 11 10 7 6 6 6 5 3 4 7 10 13 16 19 22 25 27 29 31 32 32 32 33 34 34 34 34 36 36
22 19 18 18 15 14 13 9 7 8 9 9 10 10 11 10 8 8 10 9 7 5 5 8 11 14 18 21 24 28 30 31 32 34 35 36 36 35 35 35 35 36 36 37
18 19 18 17 16 14 10 7 8 9 9 9 8 7 6 7 9 9 9 8 7 6 7 11 14 18 21 24 26 29 30 32 33 35 36 37 38 40 41 43 43 43 44 44
16 16 14 15 14 10 8 11 11 10 9 8 8 9 10 9 9 10 9 8 7 8 10 13 17 21 24 26 28 30 31 34 36 37 37 37 38 40 40 41 41 42 43 44
16 16 15 14 11 10 11 11 10 10 9 9 10 10 10 10 11 10 10 10 10 11 14 17 20 23 25 27 29 31 32 33 34 35 36 37 37 38 39 39 40 40 40 40
13 13 13 13 12 12 12 11 10 11 10 10 11 11 12 11 11 11 11 11 13 14 17 21 23 25 27 30 32 33 34 34 36 36 36 36 36 37 38 38 39 40 41 42
13 12 11 10 10 11 12 13 12 12 12 14 13 12 12 12 12 12 12 14 16 18 21 24 26 28 30 32 33 34 35 35 35 34 35 36 36 37 38 39 41 41 41 40
11 11 11 11 12 13 13 13 12 12 13 15 15 14 14 13 13 13 15 17 19 21 24 26 28 30 31 33 34 35 35 35 35 35 36 36 36 38 39 40 40 40 39 39
10 9 9 9 9 9 10 11 11 11 13 14 14 14 14 14 15 16 18 20 22 24 26 28 30 31 33 34 34 35 35 35 35 35 36 37 38 39 39 39 39 39 39 39
9 7 7 8 8 8 8 9 10 10 12 14 14 15 15 16 17 19 21 22 24 26 28 30 31 33 34 34 35 35 35 35 35 36 37 38 39 39 39 39 39 40 40 39
7 7 6 7 8 9 10 11 12 14 15 15 15 15 17 19 20 21 23 24 26 28 29 31 33 33 33 34 34 35 35 35 35 36 37 38 38 38 39 39 39 39 39 39
8 7 7 9 10 12 13 14 14 14 15 15 15 16 17 19 21 23 24 26 27 28 30 32 32 33 34 34 34 35 35 34 35 36 37 37 37 37 37 38 38 38 38 38
8 8 9 10 11 13 14 14 14 15 15 15 15 17 19 20 22 23 25 26 27 31 31 30 32 33 34 34 34 34 33 34 35 36 36 36 37 37 37 37 37 37 37 36
8 8 9 10 11 12 12 12 13 14 16 16 18 18 19 21 22 23 25 27 29 28 30 32 33 33 33 33 33 32 33 33 34 34 35 35 36 36 36 36 36 36 36 34

GFSNGP_700_spd_138.txt.gz
Wind_Speed
23 23 24 31 31 30 33 37 31 42 44 38 36 31 24 19 14 13 12 14 15 15 15 16 16 16 17 20 23 26 28 30 32 37 39 41 42 41 36 24 23 32 26 17
29 26 28 35 34 34 36 34 35 33 34 35 29 19 17 18 17 13 12 14 15 13 14 14 14 14 15 17 21 25 26 27 28 30 30 33 33 34 37 39 39 34 26 23
30 22 26 27 28 21 19 17 23 26 26 21 14 16 16 18 16 12 12 14 14 12 13 13 12 12 14 16 19 21 22 23 24 26 28 29 30 31 33 34 33 34 36 36
23 25 9 16 11 15 18 16 16 19 20 16 14 14 14 13 13 13 12 14 14 12 12 12 11 11 14 15 16 18 19 19 21 23 25 26 26 27 28 29 28 30 27 25
14 17 29 40 25 31 23 28 16 21 19 15 11 12 13 13 14 13 14 14 13 13 11 10 9 9 12 14 15 17 16 16 18 20 21 23 24 26 27 27 27 26 27 24
24 13 6 12 6 12 20 26 18 10 10 11 12 13 11 13 14 14 15 14 14 13 10 8 7 8 10 11 12 14 13 13 17 20 21 22 25 26 26 25 25 24 23 23
28 23 21 30 29 21 12 18 14 12 10 12 12 14 15 14 14 15 14 15 15 12 9 7 6 7 9 10 10 9 10 13 16 18 20 22 24 25 26 26 25 24 24 24
10 11 13 18 19 17 17 20 18 15 17 17 17 18 18 14 13 12 13 15 15 10 7 5 6 7 9 9 8 8 9 12 14 16 18 19 21 21 22 22 23 24 23 22
16 15 17 23 21 22 22 19 17 20 22 22 21 20 19 15 12 12 13 13 13 9 5 4 7 8 7 7 7 8 10 12 14 16 18 19 20 21 22 23 24 24 24 24
25 29 32 26 28 23 23 21 22 21 20 21 22 21 16 14 13 14 14 13 14 11 6 3 5 7 5 5 7 9 12 14 16 17 19 21 24 25 25 25 24 24 23 23
29 29 22 17 19 18 18 20 23 20 19 18 17 15 14 12 11 13 13 12 11 7 3 3 5 5 4 6 8 11 13 16 18 20 21 22 22 22 23 25 26 27 28 28
31 29 13 14 15 17 18 19 18 18 17 14 12 10 10 10 12 11 12 12 11 7 3 5 4 3 4 7 10 12 15 18 19 20 21 22 23 25 25 25 26 27 29 30
22 16 14 18 19 19 18 16 16 15 13 10 7 10 10 9 9 10 11 10 6 4 5 4 3 4 7 10 13 15 18 20 21 22 23 24 24 24 25 27 28 27 26 26
16 17 21 19 18 18 17 16 15 13 11 11 9 8 7 8 9 11 10 6 7 7 6 5 5 6 9 12 14 16 19 20 22 24 25 27 29 30 31 29 29 30 32 32
22 21 19 19 17 17 16 14 12 11 11 9 7 6 7 8 11 11 9 8 8 7 6 6 7 10 13 15 18 20 23 25 27 28 28 29 31 31 32 33 33 33 32 33
18 19 18 17 17 15 14 13 11 10 9 7 6 6 7 8 9 9 10 10 9 8 7 8 11 14 17 19 22 26 28 30 32 32 34 35 36 35 33 33 34 36 38 39
17 16 17 17 15 12 12 13 12 10 8 7 7 9 10 10 10 10 11 11 9 8 9 12 14 17 20 23 25 28 31 33 34 35 35 36 37 36 37 38 39 40 40 41
18 18 17 15 14 11 12 11 10 8 8 8 9 9 11 12 12 12 12 11 10 11 12 14 17 20 22 25 27 30 32 34 34 35 36 36 35 35 36 38 38 38 39 39
17 15 11 10 10 10 11 11 9 8 9 10 10 12 13 12 12 12 12 12 13 14 16 18 20 22 25 27 29 31 33 34 35 35 35 35 36 36 36 36 37 37 38 39
16 11 9 9 9 9 11 11 11 11 12 13 14 12 12 12 13 12 13 15 16 17 19 21 23 25 27 29 31 34 35 35 35 35 35 35 35 34 35 35 36 37 38 39
10 11 10 11 11 11 11 11 12 12 13 13 14 14 14 14 14 14 16 17 18 19 21 23 25 27 29 31 33 36 35 35 36 36 35 34 34 34 35 36 37 38 38 38
10 11 10 9 9 10 10 10 11 11 11 12 13 13 13 14 15 17 18 19 20 22 23 25 26 28 30 33 36 35 35 36 36 35 34 34 33 34 35 36 37 37 38 38
10 9 8 9 9 8 8 9 10 11 12 12 14 14 14 16 18 18 19 21 23 24 25 26 28 29 31 35 34 34 35 35 35 34 34 34 35 35 36 36 37 38 37 38
8 8 9 8 8 8 9 10 10 11 12 13 14 15 17 17 18 19 21 23 24 25 26 27 28 31 35 33 33 34 35 34 34 33 33 34 34 35 36 36 37 38 38 38
8 8 8 8 8 9 10 10 11 12 12 13 14 15 16 17 19 21 23 24 24 25 26 27 31 33 31 32 33 34 34 33 33 33 33 34 34 35 35 36 37 37 37 37
8 7 8 8 9 10 11 12 13 12 12 12 14 15 17 19 20 22 22 23 24 25 27 32 30 29 31 32 33 33 33 32 32 32 33 33 34 34 35 35 36 36 36 36
8 8 9 10 11 12 13 13 12 13 13 14 16 18 19 20 21 21 22 23 25 29 29 27 29 31 31 32 32 31 31 31 31 31 32 33 33 33 34 34 35 35 35 34

GFSNGP_700_spd_141.txt.gz
Wind_Speed
18 17 20 24 26 27 29 34 29 49 40 46 39 38 24 25 20 19 17 15 14 15 14 15 15 14 14 15 17 20 22 22 23 27 29 30 31 35 38 44 44 32 29 31
23 21 24 28 29 34 35 37 41 40 38 27 25 18 13 13 16 18 16 15 15 14 12 13 13 13 12 13 15 17 19 19 20 21 22 24 26 28 31 33 34 38 42 35
19 14 20 25 15 15 19 21 22 24 23 21 19 10 9 11 13 14 14 14 15 13 12 12 12 12 11 12 14 15 16 16 16 17 19 21 23 24 25 28 30 30 30 32
20 14 10 11 12 28 30 31 20 22 26 24 20 14 11 10 12 13 13 14 15 14 12 12 11 11 11 12 13 15 15 13 12 14 16 19 20 21 23 27 27 26 26 27
11 16 24 26 15 14 7 13 18 20 19 13 13 11 10 11 12 12 13 14 15 14 13 12 11 10 10 11 12 13 13 10 11 14 16 18 18 21 23 24 23 23 24 22
11 8 8 16 18 17 18 28 18 11 13 11 9 11 11 12 12 13 13 14 14 14 12 11 10 9 9 10 10 10 10 10 13 16 17 18 20 21 23 23 23 22 20 19
24 14 16 23 18 18 12 15 13 11 11 11 13 13 13 15 14 13 13 13 13 13 11 9 8 7 9 8 8 8 9 10 13 14 16 18 20 21 22 22 22 20 19 19
9 10 11 6 9 10 11 17 20 17 15 15 17 17 19 17 14 12 12 11 11 11 9 7 5 5 6 7 8 8 8 11 13 14 16 18 19 19 20 20 19 18 19 19
14 14 20 26 27 30 35 25 26 22 14 20 18 18 19 18 15 13 11 11 10 10 8 5 2 4 5 6 7 7 8 11 13 15 16 17 18 18 19 20 21 22 21 20
25 29 25 27 26 28 28 15 19 19 20 21 19 20 21 18 13 12 11 11 10 11 10 7 4 4 4 5 6 7 10 12 14 16 18 19 20 20 21 21 21 22 23 22
31 30 29 26 23 12 14 16 15 17 18 19 19 18 16 13 12 13 12 10 10 11 9 7 5 3 3 3 5 8 11 14 16 18 19 20 21 22 23 24 25 25 24 24
33 24 25 23 11 15 17 18 19 18 18 18 16 14 13 12 13 12 10 9 10 10 8 4 4 5 4 5 7 10 12 15 17 19 20 22 23 24 25 26 26 26 26 27
24 21 22 21 15 19 19 18 18 17 17 15 14 14 15 14 12 10 9 9 10 9 6 6 5 3 4 7 10 12 14 16 18 19 20 21 22 23 26 28 28 27 27 28
26 22 21 18 20 21 19 16 16 16 14 14 12 11 11 10 9 8 9 10 9 8 8 7 5 4 6 9 12 15 17 19 21 23 24 25 25 26 26 26 26 25 27 26
18 21 24 24 22 20 17 15 14 14 13 10 9 9 9 8 9 9 10 8 8 9 8 7 6 6 8 11 14 16 18 21 23 25 26 26 27 29 29 30 29 29 27 28
16 15 18 21 22 19 17 14 13 12 10 9 9 8 8 8 8 9 10 10 11 10 9 9 8 9 11 14 16 18 20 23 26 27 28 28 29 29 29 30 30 31 31 30
22 21 18 17 17 16 15 15 13 11 10 9 9 9 8 8 9 11 12 13 13 12 11 11 10 12 15 16 19 21 23 26 29 30 30 30 31 31 32 32 32 32 33 33
24 21 18 18 17 14 13 12 10 9 9 9 9 8 8 11 13 13 14 14 14 13 13 13 14 16 18 20 22 23 25 28 31 32 32 32 33 34 34 34 33 32 33 34
26 21 17 16 11 10 10 10 10 11 10 11 11 11 12 13 14 15 15 15 15 14 14 15 17 19 20 22 24 26 28 30 32 32 32 34 35 34 34 33 33 34 34 34
18 15 15 11 9 9 8 9 10 10 10 11 12 12 12 13 14 15 16 16 16 16 16 17 19 21 23 24 26 28 29 32 32 32 34 34 34 34 34 34 34 34 34 35
13 13 11 10 9 7 7 8 10 11 12 12 12 13 15 16 17 17 16 17 17 17 19 20 22 23 25 26 27 28 31 33 32 33 34 34 34 34 33 33 33 33 34 34
9 10 9 7 7 8 8 10 11 12 12 12 11 13 14 15 16 16 17 17 18 19 21 22 24 25 26 27 28 31 33 32 32 33 33 33 33 32 32 32 32 33 34 34
9 8 8 8 8 8 9 10 10 10 10 10 12 13 14 15 15 15 17 19 20 21 22 24 25 25 26 27 31 32 31 32 33 33 33 32 32 31 31 32 32 33 33 33
7 8 8 7 7 8 9 10 10 10 11 12 14 14 15 15 16 18 19 20 21 22 23 24 24 26 27 31 30 30 32 32 33 33 32 31 31 30 31 31 31 32 32 33
8 8 7 6 7 8 9 10 10 12 13 14 14 15 16 17 17 18 19 20 21 23 23 23 25 27 30 28 29 31 32 32 32 31 30 30 30 30 31 31 31 31 32 32
10 9 7 7 8 9 9 10 11 12 12 12 13 14 15 16 18 19 20 21 21 21 22 24 28 28 27 28 30 31 31 31 30 29 29 29 29 29 30 30 30 31 32 32
8 7 8 9 10 11 11 12 12 12 12 12 14 15 16 17 18 19 19 19 21 23 25 26 25 25 27 29 30 30 29 29 28 28 28 28 28 28 29 30 30 30 31 30

GFSNGP_700_spd_144.txt.gz
Wind_Speed
18 19 19 21 21 23 25 30 32 49 38 39 35 34 29 31 29 22 20 18 17 16 14 13 13 13 12 13 15 16 16 17 18 18 20 21 23 25 26 27 29 37 33 30
20 18 20 24 26 26 29 30 33 35 39 26 22 21 21 19 16 15 16 16 16 14 13 13 13 13 12 13 13 14 14 15 15 15 16 17 19 21 22 23 23 24 26 32
17 11 15 20 19 9 16 20 22 26 22 18 23 22 20 17 13 13 13 13 13 13 12 12 12 12 12 12 12 12 11 12 11 11 13 15 17 18 18 20 21 21 22 22
14 14 12 7 6 16 20 22 20 24 25 23 26 23 19 16 13 13 13 12 13 12 12 12 12 12 12 11 11 11 10 9 9 9 11 12 14 15 16 18 20 22 22 21
14 17 21 26 14 9 16 18 18 18 15 14 14 13 14 11 12 13 13 13 13 12 13 13 12 11 11 10 9 8 8 8 7 8 10 12 13 15 15 17 18 19 20 20
14 11 10 7 10 20 15 23 15 10 11 11 10 10 12 11 12 13 15 14 13 13 13 13 11 10 9 8 7 6 7 7 7 8 11 12 14 16 17 17 17 18 18 17
22 20 17 14 18 13 8 9 12 16 19 16 13 12 14 14 15 15 14 13 14 13 12 11 10 9 6 5 4 5 6 7 8 10 11 13 14 15 16 16 17 18 18 18
15 17 14 10 6 10 17 20 28 34 26 21 12 12 15 16 17 15 14 13 13 12 11 10 9 7 5 2 3 6 6 7 9 11 12 13 14 14 14 14 14 15 16 17
13 13 11 19 27 27 29 28 33 27 19 23 19 16 17 17 18 16 14 12 11 11 10 9 8 6 4 5 5 7 6 8 10 12 14 15 15 15 16 16 16 16 15 14
15 19 19 21 26 23 29 30 13 12 12 14 15 17 17 17 16 15 12 13 12 11 10 9 7 5 5 5 6 6 7 8 10 12 14 15 16 17 18 19 19 19 19 18
22 25 23 22 20 19 25 16 13 15 16 15 15 16 17 16 14 13 15 14 13 11 12 13 11 9 6 6 5 6 8 10 12 14 15 16 17 19 20 21 21 22 23 23
23 21 22 24 25 25 17 14 19 19 17 16 15 16 16 16 15 16 15 13 11 11 10 10 7 7 7 5 5 6 8 11 14 15 17 19 21 21 22 23 24 25 25 26
26 26 27 24 25 23 18 17 19 19 18 16 15 16 16 15 13 13 12 11 11 11 10 9 9 8 7 5 6 8 10 12 14 16 18 20 21 23 25 26 26 26 27 28
30 29 26 22 26 21 17 21 20 19 17 15 15 14 12 11 10 11 11 11 11 12 11 10 10 9 7 6 7 9 12 13 15 18 20 22 22 23 24 25 26 27 27 28
22 21 19 20 22 23 24 22 19 18 16 14 14 12 11 10 11 11 11 10 11 10 10 12 11 10 9 9 10 12 15 16 18 21 23 24 25 25 26 26 26 26 26 27
22 21 19 17 17 19 20 20 18 16 14 13 12 11 10 10 10 11 11 12 12 12 13 12 12 11 11 12 14 16 18 19 20 22 25 27 27 28 28 30 30 30 29 28
26 23 19 19 18 16 16 17 18 16 14 13 12 11 11 10 11 12 13 13 13 14 14 15 14 14 14 14 16 19 20 21 22 24 27 29 29 28 29 30 30 31 32 31
26 23 24 19 18 18 18 18 17 14 14 14 13 12 11 11 13 15 15 16 15 16 16 15 15 16 16 17 19 21 23 24 25 27 30 31 30 31 31 31 31 31 32 33
23 27 28 22 19 18 16 16 15 14 13 12 12 12 13 14 16 17 18 17 16 17 17 17 17 18 19 20 22 23 25 26 27 29 32 31 31 31 32 32 31 32 32 32
20 22 20 17 16 14 12 12 12 12 12 12 12 13 14 15 16 17 17 17 17 17 18 18 19 20 21 22 24 26 26 28 29 32 31 31 32 32 32 31 31 31 31 31
14 14 14 14 12 11 11 10 10 11 11 12 13 15 17 18 18 17 17 18 18 18 19 20 21 22 23 25 26 27 28 29 32 32 31 32 32 32 32 31 31 31 31 31
11 11 10 11 11 10 10 10 9 10 11 13 14 14 15 15 16 18 19 19 18 19 19 20 23 24 25 25 26 27 28 31 31 30 31 31 31 31 30 30 30 31 31 32
8 10 11 11 10 9 9 8 9 10 11 12 13 14 15 16 18 18 19 18 18 20 22 22 23 24 25 26 27 28 31 30 30 30 31 31 30 29 29 29 30 30 30 31
10 9 9 8 8 7 6 7 9 10 11 12 14 15 16 16 17 18 18 20 20 21 21 23 24 25 25 26 29 30 29 29 30 31 31 30 29 29 29 29 29 29 30 30
8 8 7 6 6 6 7 8 9 10 11 13 15 17 17 17 18 18 19 20 20 21 22 23 24 25 26 29 28 28 28 30 30 30 30 29 28 28 28 28 28 28 29 29
8 8 7 7 7 8 8 9 9 10 12 14 15 16 16 16 17 18 19 20 21 22 22 23 25 27 27 27 26 28 29 30 29 29 28 28 27 27 27 27 27 28 28 28
10 9 9 10 10 10 10 10 10 11 12 13 14 14 15 16 17 18 19 20 20 22 23 24 25 25 25 25 27 28 28 28 28 27 27 26 25 25 26 27 27 27 27 27